GFSNE_sfc_wetblb_027.txt.gz
Wetbulb
39.42 39.50 38.30 38.45 38.56 37.97 37.13 35.85 32.49 28.07 29.39 33.87 34.23 38.16 37.70 37.50 38.08 37.18 36.34 38.84 40.51 41.03 41.14 41.03 40.80 40.99 41.32 41.65 41.94 42.06 42.53 42.77 43.08 43.76 44.54 44.66 45.40 46.20
38.79 37.68 37.61 37.65 37.25 37.00 36.34 35.81 34.61 31.60 27.90 33.08 33.96 35.30 36.42 36.78 37.31 36.35 36.41 38.86 39.36 39.86 39.78 39.64 39.64 39.42 39.67 40.06 40.45 40.93 41.52 42.04 42.83 43.65 44.34 44.50 44.99 45.27
38.04 37.19 36.42 36.65 35.67 35.40 35.08 34.56 33.33 32.68 28.93 31.39 33.98 35.32 34.41 34.05 35.11 36.02 36.57 35.37 35.49 38.71 38.90 38.71 38.66 38.86 39.31 39.59 39.92 40.29 40.75 41.18 41.94 42.50 43.37 43.62 44.02 44.20
36.64 36.21 35.37 35.69 34.79 34.39 33.92 33.14 32.63 32.91 30.96 28.85 32.11 32.24 32.66 34.06 34.28 34.00 34.68 35.87 34.14 36.54 37.87 38.22 38.51 38.67 38.86 39.04 39.15 39.46 39.72 39.99 40.36 40.82 41.71 42.26 42.75 43.05
36.42 35.50 34.82 34.29 33.25 33.22 33.00 32.33 32.80 33.57 32.71 30.71 29.58 32.29 32.49 33.45 33.10 33.99 32.86 33.26 34.08 35.93 36.91 37.44 37.72 38.10 38.25 38.52 38.68 38.85 38.81 38.92 38.97 39.09 39.50 39.70 40.40 41.21
36.52 35.89 34.86 33.91 32.75 32.41 31.90 31.95 32.35 31.15 31.21 29.85 29.12 29.46 30.70 33.00 32.18 29.82 29.09 30.98 30.54 33.03 34.63 35.80 36.52 36.84 37.45 37.66 37.48 37.14 37.19 37.55 38.10 38.38 38.56 38.42 38.44 39.30
35.62 35.29 35.04 35.23 34.82 34.40 32.56 31.86 31.39 30.13 29.49 28.69 28.26 28.97 29.69 28.41 27.40 28.99 27.84 28.74 29.07 30.97 30.18 30.56 31.64 31.46 31.99 34.97 35.01 35.71 36.24 37.12 37.57 37.85 38.28 38.56 38.58 38.70
33.62 33.87 34.10 34.59 34.24 34.99 35.08 34.90 33.46 30.17 29.27 29.08 29.20 28.02 27.32 27.98 28.44 27.53 26.52 25.93 25.26 30.71 28.67 27.88 30.11 29.43 30.97 31.50 35.20 36.16 36.46 36.80 37.18 37.63 38.09 38.37 38.54 38.65
33.12 32.82 32.56 33.35 33.71 32.37 33.20 34.08 33.63 34.51 34.62 31.44 28.06 27.77 27.09 27.91 27.62 26.71 27.39 27.25 25.02 27.79 27.64 25.52 29.36 27.73 30.32 31.56 34.64 35.76 36.20 36.41 36.99 37.46 37.82 38.09 38.47 38.90
33.31 32.87 32.13 31.95 32.45 32.22 31.10 30.49 30.99 31.70 31.45 31.48 30.14 29.43 29.35 30.20 30.39 30.96 28.56 27.16 27.44 28.18 29.29 23.94 27.54 25.99 28.81 30.46 33.99 34.70 35.40 36.24 36.82 37.24 37.70 37.90 38.16 38.64
32.94 32.92 32.58 31.92 33.54 34.13 30.94 29.43 29.67 29.19 32.55 33.48 33.22 33.55 34.37 34.73 33.00 29.13 25.60 24.62 23.18 24.65 27.69 25.18 25.34 26.11 26.65 26.82 29.07 34.15 35.05 36.02 35.91 36.75 37.44 37.84 38.01 38.50
31.54 31.86 33.72 32.65 33.89 33.81 30.82 28.89 26.32 26.99 27.67 28.47 29.45 30.24 30.96 29.88 32.38 29.71 27.90 25.27 23.97 22.13 25.92 24.50 24.36 24.96 22.01 26.42 27.83 28.72 29.23 33.24 34.89 35.79 36.76 37.48 37.97 35.87
29.39 29.70 30.87 33.33 33.24 33.53 33.13 28.64 27.30 29.35 29.30 27.97 27.02 27.16 27.46 27.57 28.32 29.13 28.61 26.98 24.48 22.62 26.19 25.86 23.85 23.28 23.00 22.53 25.10 26.83 27.79 29.14 30.63 31.71 35.01 36.50 37.30 37.30
28.78 29.85 30.45 32.56 32.84 32.27 30.63 30.42 30.94 30.85 27.01 25.81 25.04 24.73 25.11 25.82 27.05 27.59 27.44 27.20 27.22 25.71 27.00 26.99 23.78 23.11 22.18 21.54 21.28 25.53 26.96 28.52 29.77 30.31 31.29 34.47 36.86 38.06
30.54 31.36 32.23 31.85 31.29 29.20 29.14 30.01 30.10 26.35 25.51 24.26 23.99 24.38 25.62 26.56 26.80 26.49 27.41 27.69 27.65 27.26 27.34 26.71 26.21 25.99 25.41 23.33 22.71 24.23 26.08 28.23 30.07 30.04 32.34 33.40 33.27 33.59
30.61 29.52 29.80 29.75 29.40 28.27 27.20 27.06 26.53 26.18 25.67 24.73 24.20 24.87 25.74 25.06 24.46 25.47 24.40 24.57 23.94 23.88 27.03 27.69 28.24 28.02 26.04 26.25 26.24 25.57 27.73 25.82 29.52 31.51 32.77 32.84 33.21 33.69
29.35 26.92 25.31 24.72 24.05 24.30 24.71 25.02 25.16 25.20 24.49 24.69 24.33 23.80 23.10 23.52 23.39 24.32 23.95 24.23 23.03 22.32 23.43 26.02 27.94 28.37 28.43 27.87 26.37 27.08 27.75 28.48 30.55 31.31 31.56 30.68 31.82 33.34
25.93 23.15 22.71 22.98 22.48 22.56 22.51 22.66 23.51 24.43 24.18 24.38 23.18 22.82 22.57 22.17 22.15 23.61 24.31 23.02 22.33 22.96 23.82 25.64 26.24 27.08 26.89 29.08 32.93 28.86 28.60 28.26 30.17 30.94 31.32 30.32 29.83 32.48
22.62 22.29 21.82 22.08 21.94 22.44 22.56 22.58 21.98 23.49 24.09 23.32 22.96 22.36 22.22 22.72 22.63 21.86 22.67 23.08 22.78 23.32 24.24 25.73 26.95 25.67 23.55 21.91 27.63 33.67 28.33 28.32 28.64 29.79 31.26 30.56 30.18 31.66
22.67 21.94 21.47 21.78 21.76 22.05 22.29 22.40 22.71 22.56 22.26 22.27 22.58 23.03 22.61 22.18 21.62 21.56 22.27 22.50 22.93 23.54 24.83 25.91 26.88 26.60 25.27 24.94 25.45 28.38 32.35 29.90 29.88 29.39 29.84 31.29 33.05 35.74
21.84 21.61 21.92 21.72 21.92 22.29 22.52 22.48 22.05 21.47 22.87 22.99 21.77 22.20 22.78 22.86 21.75 22.46 22.98 25.98 26.55 24.91 23.70 25.02 28.04 32.61 29.59 30.23 26.82 27.17 29.90 33.03 33.17 31.19 31.06 30.50 30.09 30.64
21.52 21.22 21.59 21.82 21.96 22.29 22.29 21.89 21.24 21.40 21.41 21.55 21.79 22.40 22.94 23.19 22.86 23.33 23.97 24.15 24.55 25.46 26.81 28.33 28.50 28.37 29.00 27.35 25.98 27.23 28.30 31.14 33.58 34.50 34.98 34.66 30.88 27.35
21.03 21.03 21.03 21.26 21.87 22.11 21.84 21.12 20.78 20.65 21.06 21.40 21.67 22.32 23.20 22.74 23.76 24.52 25.50 26.50 26.63 28.30 27.30 26.62 27.76 28.84 28.02 28.08 28.37 27.74 28.60 29.07 30.13 29.69 31.97 35.54 36.23 35.76

GFSNE_sfc_wetblb_030.txt.gz
Wetbulb
33.86 33.69 33.34 33.59 33.21 32.64 32.12 30.84 27.31 24.68 25.89 26.98 27.88 32.40 32.21 33.18 34.39 35.13 33.65 38.27 40.42 41.38 41.83 41.69 41.36 41.67 42.12 42.43 42.50 42.71 43.00 42.97 43.49 44.25 44.73 45.16 45.62 46.34
34.38 32.77 32.45 32.56 31.87 31.36 30.78 30.61 29.34 26.36 24.61 28.20 29.70 29.20 31.37 34.39 35.18 34.87 34.17 38.31 39.30 40.26 40.45 40.16 40.35 40.43 40.72 41.18 41.56 41.82 42.16 42.59 43.28 43.92 44.75 45.04 45.37 45.67
33.19 32.82 32.54 32.28 30.71 30.08 29.55 29.40 28.37 27.33 25.65 28.35 30.03 31.24 28.91 29.60 32.44 32.43 33.80 33.09 34.12 38.83 39.47 39.49 39.47 39.71 40.20 40.69 40.82 41.15 41.48 41.87 42.39 43.07 43.79 44.34 44.69 44.82
32.73 31.93 31.59 34.18 29.92 29.56 28.44 27.85 27.43 27.57 26.76 26.00 29.06 29.39 28.35 29.63 30.66 30.85 32.79 35.26 33.70 36.49 38.47 38.56 38.91 38.96 39.35 39.66 39.83 40.18 40.30 40.53 40.86 41.39 42.04 42.54 42.95 43.52
32.35 31.42 30.87 30.21 28.60 28.15 27.67 26.95 27.58 30.57 28.59 27.15 26.74 29.17 29.12 29.94 29.70 31.15 32.19 30.91 32.48 35.52 36.74 37.07 37.52 38.05 38.81 38.67 39.12 39.35 39.32 39.21 39.60 39.73 40.00 40.59 41.08 41.96
33.23 31.97 30.94 30.09 28.93 27.42 28.15 27.44 29.06 27.19 27.65 26.80 26.57 26.82 27.89 29.56 30.46 27.89 26.73 28.37 27.99 31.43 33.19 34.44 36.66 36.88 37.07 37.46 37.27 36.86 37.04 37.67 38.45 39.03 39.23 39.30 39.56 40.13
31.17 31.61 31.31 32.81 35.78 34.44 31.80 27.87 27.78 27.59 26.28 25.40 26.99 27.40 26.91 28.16 25.58 27.33 25.65 26.44 27.07 28.28 28.52 28.96 29.30 29.56 30.02 33.41 33.95 35.22 35.95 37.40 38.25 38.68 39.18 39.50 39.65 40.03
28.83 29.53 30.02 33.37 32.36 35.41 35.42 35.40 33.67 29.13 27.27 26.26 27.29 27.47 25.43 26.04 26.34 25.36 24.66 23.51 22.86 29.90 25.12 26.25 28.26 27.16 28.46 29.64 34.17 35.68 36.39 36.84 37.66 38.25 38.56 39.04 39.30 39.86
28.20 28.39 29.15 31.99 32.06 28.94 32.30 34.21 33.23 34.20 33.88 30.21 26.49 25.82 25.64 26.48 24.95 24.38 25.50 26.46 26.45 27.46 26.31 24.20 27.42 26.34 28.66 30.04 33.69 34.65 35.80 36.24 36.85 37.28 37.82 38.33 39.10 39.39
28.28 28.05 27.27 27.26 28.41 30.62 28.92 26.06 27.32 27.95 29.33 30.13 28.31 27.80 28.06 28.95 30.02 30.54 29.33 26.89 26.45 26.99 26.77 22.52 26.25 25.23 27.31 27.87 33.20 33.98 34.55 35.35 36.39 37.07 37.70 37.81 37.97 38.57
28.16 28.08 28.54 27.65 32.50 34.54 29.94 25.44 26.72 27.46 31.41 32.88 32.89 33.44 34.09 34.28 32.89 28.72 24.94 24.01 22.63 23.87 26.85 24.80 24.37 24.27 25.26 25.43 27.37 32.40 33.83 34.83 34.80 35.38 36.13 36.68 37.18 37.94
26.57 27.61 32.35 31.29 33.85 34.28 29.88 28.28 25.99 25.06 25.71 26.25 27.65 28.16 28.95 27.24 31.52 27.13 25.63 23.03 22.86 21.52 24.57 23.35 23.32 23.63 20.23 24.00 24.51 26.13 26.38 31.04 32.87 33.88 34.91 35.78 36.60 34.21
25.92 25.65 26.28 32.70 33.49 33.89 33.87 27.51 26.30 28.89 28.98 26.35 24.89 24.63 25.22 25.29 25.84 26.58 27.85 26.18 23.40 22.01 25.65 25.57 23.48 22.89 22.61 21.04 23.05 24.79 25.65 26.49 27.00 28.47 32.35 34.03 35.30 35.84
25.30 25.25 25.98 32.62 32.92 32.55 31.02 31.18 31.32 31.24 25.03 23.66 23.39 23.09 23.33 23.78 24.82 26.26 26.94 26.93 26.66 25.28 26.53 26.84 24.17 23.42 22.11 20.73 20.13 24.30 25.68 26.75 27.01 27.10 28.48 32.04 34.76 36.03
27.04 29.80 31.93 31.78 31.20 28.69 29.39 30.38 29.81 23.42 23.17 22.28 22.54 23.04 23.51 24.13 24.57 24.86 25.02 24.85 24.72 25.58 26.76 26.00 24.86 24.37 24.10 22.38 21.80 23.18 24.74 26.80 28.19 27.62 28.65 29.90 30.78 32.50
28.85 25.20 28.96 29.03 28.84 27.52 25.68 24.60 23.61 23.48 23.67 23.01 22.24 23.63 24.32 24.02 22.75 22.99 22.92 23.39 22.52 22.29 26.05 26.54 25.66 25.69 24.37 24.67 24.87 24.35 26.17 24.70 28.09 29.67 30.40 30.79 31.68 32.77
29.19 24.35 22.52 21.46 21.00 21.73 22.08 22.43 22.87 22.95 22.39 22.65 22.64 22.81 22.64 22.17 21.91 22.56 22.37 22.41 21.54 20.94 21.78 24.48 26.11 27.16 26.46 25.69 23.92 24.89 26.09 27.21 29.34 29.31 29.40 29.10 29.83 31.26
24.94 20.29 19.13 19.90 20.05 20.51 20.55 20.81 21.65 22.60 21.90 22.70 22.41 21.94 21.54 21.08 20.77 22.08 23.41 21.66 20.56 21.13 22.05 23.51 24.19 23.88 25.06 27.11 31.01 27.26 28.09 27.81 28.40 29.24 29.17 27.83 28.63 31.30
19.74 18.04 19.01 19.52 19.72 19.95 19.83 20.09 20.09 21.36 22.42 21.96 21.33 20.80 20.78 21.29 22.02 20.25 20.64 20.99 20.61 21.20 21.68 23.12 24.84 24.22 21.68 21.05 27.44 33.42 28.34 28.33 28.51 28.43 29.67 29.46 28.85 30.48
19.33 18.73 18.52 19.36 19.46 19.37 19.89 20.38 20.72 21.13 21.05 20.60 20.63 21.89 21.44 20.75 19.90 20.10 20.55 20.61 21.29 22.77 24.06 24.64 24.53 25.47 25.05 24.29 24.68 27.45 31.98 29.46 29.30 28.32 28.67 30.85 32.13 34.89
18.96 18.73 19.41 19.32 19.31 19.77 20.33 20.76 20.89 20.51 21.78 21.57 19.89 20.39 20.76 21.05 20.23 20.68 21.11 24.77 25.59 23.92 23.07 24.36 27.01 32.83 29.76 28.81 26.05 26.59 29.53 33.04 32.68 30.87 30.98 29.79 29.19 30.86
18.97 18.85 19.24 19.65 19.75 19.80 20.03 20.37 20.01 19.93 19.46 19.56 19.75 20.45 20.79 21.08 21.00 21.60 21.98 21.82 22.99 24.71 25.65 27.62 29.63 29.11 28.07 26.70 25.21 26.08 27.74 30.10 32.87 34.01 34.36 33.46 30.61 27.89
18.20 18.66 18.78 19.12 19.38 19.52 19.86 19.70 19.45 19.20 19.58 19.90 19.82 20.17 20.86 21.13 22.39 22.69 22.84 23.99 24.82 25.65 28.13 26.75 27.76 28.48 27.19 27.64 28.02 27.17 27.65 27.83 29.05 29.54 30.79 35.26 35.50 35.61

GFSNE_sfc_wetblb_036.txt.gz
Wetbulb
33.02 32.14 31.99 31.83 31.49 31.02 30.70 29.66 26.81 22.94 22.88 25.30 25.79 27.81 29.31 29.48 31.98 33.06 31.14 36.43 39.26 40.02 40.42 40.67 41.01 41.70 42.33 42.58 43.10 43.66 43.65 44.12 44.54 45.06 45.63 46.10 46.46 47.27
32.49 31.31 31.05 30.86 30.35 29.85 29.45 29.13 28.07 25.82 22.52 25.05 25.44 26.38 28.02 31.52 32.16 32.28 31.40 36.26 36.83 38.27 39.19 39.51 39.82 40.35 40.87 41.43 41.83 42.21 42.64 43.04 43.70 44.47 45.51 45.84 46.03 46.39
31.34 31.18 31.08 31.19 30.26 29.83 28.79 28.15 26.83 25.37 23.01 24.96 25.76 27.18 26.39 26.83 28.97 29.05 30.38 30.11 30.82 36.81 38.10 38.77 39.04 39.39 40.11 39.96 40.40 41.01 41.33 41.96 42.67 43.89 43.94 44.54 45.38 45.54
31.01 31.02 31.11 33.91 30.97 29.79 28.46 27.07 26.12 25.57 24.17 23.29 24.83 25.39 25.46 27.05 26.77 26.74 29.96 31.87 30.91 34.88 37.23 37.80 38.25 38.33 38.55 39.04 39.33 39.87 40.51 40.66 40.65 41.35 41.90 42.40 43.03 43.58
32.56 32.12 33.00 31.70 30.65 29.58 27.74 26.70 25.92 28.30 26.04 24.16 25.05 25.54 25.85 26.09 27.11 27.63 27.85 29.01 31.46 34.31 35.84 36.16 36.70 37.25 37.73 38.34 38.86 39.08 38.52 38.63 38.84 39.11 39.56 40.29 40.86 41.87
34.00 33.37 32.47 31.47 30.16 29.26 28.72 27.44 27.77 26.11 25.41 24.71 25.02 23.70 22.97 26.65 26.68 25.92 25.56 27.30 27.01 29.89 32.22 33.80 35.40 35.96 36.80 37.11 36.92 36.37 36.30 36.85 37.65 38.19 38.59 39.12 39.58 40.68
32.39 31.65 31.72 32.36 34.78 34.02 30.80 27.84 26.89 25.98 25.31 21.92 23.35 21.60 23.84 25.18 24.65 25.76 24.61 25.54 26.30 27.49 27.23 27.59 27.57 27.78 29.13 33.06 33.19 34.08 34.48 35.74 37.17 37.96 38.58 39.14 39.05 39.72
29.70 29.58 29.00 31.94 31.54 35.44 35.82 35.80 33.68 25.66 20.05 19.84 19.21 24.31 24.52 24.97 25.51 24.93 23.98 22.86 21.88 27.77 24.76 27.32 28.35 26.82 27.73 28.15 32.67 34.26 35.40 36.22 36.66 37.04 37.46 38.16 38.47 39.03
26.72 26.19 26.86 29.78 29.40 26.71 30.99 34.14 33.54 34.84 34.41 30.77 26.20 24.97 24.73 25.79 25.81 23.65 24.01 24.94 25.34 26.92 26.01 23.38 26.34 25.07 27.21 28.53 33.02 33.99 34.90 35.50 35.99 36.14 36.55 37.03 37.53 38.27
25.26 24.92 24.96 25.54 26.32 29.29 27.87 26.06 27.41 27.99 28.06 27.86 26.17 27.11 27.61 28.11 28.59 29.57 27.95 25.31 25.54 25.95 25.79 20.84 24.58 23.74 26.15 26.96 32.06 33.21 33.86 34.60 35.15 35.74 36.31 36.64 36.73 36.81
26.11 26.15 26.96 26.04 31.32 33.69 28.96 25.81 25.96 26.22 31.01 33.28 33.51 33.73 34.06 34.24 32.65 27.47 23.22 22.38 20.50 21.98 24.91 22.78 22.79 22.79 24.16 24.51 26.34 31.73 32.98 33.78 34.39 34.84 35.16 35.37 35.61 35.81
24.69 25.98 30.56 29.84 32.57 33.39 29.49 26.81 24.57 24.10 25.20 25.52 24.96 26.01 27.56 25.95 30.50 26.09 23.12 20.74 20.30 19.83 22.38 19.49 22.09 22.72 20.17 21.76 23.99 23.79 25.23 30.47 32.18 33.07 33.82 34.36 34.68 31.93
25.16 24.53 25.28 31.11 32.60 33.63 32.94 25.33 25.55 28.17 26.20 21.97 22.76 22.97 23.65 23.78 24.65 24.97 24.88 23.48 21.79 20.97 24.69 25.16 22.73 21.83 21.92 20.63 22.38 24.24 24.65 25.34 25.54 26.74 30.76 32.16 33.09 33.09
24.60 24.33 24.61 31.36 32.33 31.62 29.07 29.87 30.72 29.47 22.70 21.95 21.63 21.37 21.83 22.34 23.04 23.72 24.47 24.38 24.67 23.52 24.57 24.30 21.48 20.46 20.16 19.24 18.90 22.74 23.87 24.57 24.85 24.65 25.22 29.02 32.36 33.94
26.10 28.52 31.75 30.72 29.35 26.16 27.72 28.84 28.08 21.60 21.47 20.31 20.52 21.05 21.54 22.07 22.71 23.24 23.29 23.09 21.82 22.76 24.38 23.51 23.09 22.62 21.84 19.99 19.44 20.83 22.22 23.64 25.13 24.74 25.31 25.59 25.47 26.99
28.25 25.22 26.90 26.13 26.23 25.47 23.89 23.18 22.36 21.91 21.70 21.13 20.40 21.39 21.89 21.51 21.12 21.52 20.53 20.72 20.44 20.02 23.34 23.82 22.32 21.96 20.90 21.47 22.06 21.27 22.91 22.03 24.42 25.24 25.50 26.07 27.52 29.19
25.61 21.56 19.76 19.73 19.42 19.90 20.41 20.93 21.20 21.24 20.52 20.57 20.07 19.99 20.49 20.54 20.24 20.67 20.27 19.94 18.56 18.75 19.28 21.45 23.16 23.15 22.97 22.83 21.01 22.01 22.56 22.94 24.55 24.97 25.75 25.77 27.63 29.23
21.21 18.21 17.66 18.06 17.96 18.33 18.62 18.77 19.41 20.38 19.67 19.97 19.50 19.34 18.85 18.72 18.74 20.07 21.06 19.11 17.99 18.18 18.67 20.18 20.61 20.91 21.98 24.89 27.83 22.60 23.43 23.93 26.15 27.79 28.72 27.05 27.21 29.87
18.16 16.59 16.79 17.21 17.45 18.00 17.85 17.53 17.06 18.54 18.69 18.68 18.59 18.50 18.82 19.08 20.46 17.97 18.17 18.64 18.31 18.75 19.25 20.36 21.35 22.02 19.95 18.67 25.84 32.56 27.58 28.70 28.47 27.69 28.06 27.32 26.49 28.18
17.23 16.52 16.36 17.10 17.48 17.24 17.12 16.86 17.25 17.53 18.02 17.92 18.81 19.60 18.74 18.42 17.81 17.76 18.52 18.49 18.65 19.99 21.73 22.94 22.49 22.74 22.04 22.39 24.27 27.46 31.67 28.32 27.90 27.24 27.28 29.04 30.62 33.62
16.57 16.39 17.15 17.13 17.06 17.12 17.22 16.90 16.73 16.70 19.35 19.18 16.73 18.13 18.99 18.88 18.13 18.93 19.16 23.28 24.31 21.82 20.85 22.00 24.67 30.66 28.54 28.25 24.95 25.21 28.19 31.67 31.46 29.30 29.16 28.08 26.84 27.78
16.64 16.53 17.18 17.41 17.04 16.59 16.43 16.46 16.48 16.50 16.50 17.03 17.69 18.68 19.40 19.88 19.01 19.30 20.58 21.30 22.26 23.29 23.52 25.17 27.18 27.57 26.93 25.84 23.67 24.25 25.84 28.40 31.46 32.89 33.46 32.57 29.13 26.34
16.27 17.27 17.36 16.89 16.55 16.23 17.14 16.88 16.68 16.57 16.72 17.42 18.15 18.95 20.38 20.78 21.48 22.25 22.68 23.36 24.58 25.99 25.96 24.51 25.43 26.43 25.78 25.51 25.79 25.15 25.59 26.93 28.41 28.85 30.11 34.48 34.85 34.93

GFSNE_sfc_wetblb_039.txt.gz
Wetbulb
35.46 35.27 34.31 33.73 33.52 32.40 30.64 29.53 27.56 23.57 23.31 25.99 27.16 28.22 28.26 28.90 31.27 31.64 29.74 35.75 38.77 39.46 39.94 40.39 40.67 41.16 41.84 42.42 42.98 43.57 43.90 44.21 44.97 45.14 45.54 46.30 46.80 47.66
36.27 34.22 33.61 33.03 32.21 31.30 29.34 29.00 28.10 26.35 23.25 25.46 25.78 25.98 27.58 30.75 31.22 31.68 30.43 36.06 36.45 37.88 38.68 39.03 39.35 39.87 40.75 41.30 41.80 42.45 42.70 42.83 43.76 44.52 45.28 45.73 46.24 46.80
34.55 33.77 33.08 32.70 31.69 30.38 28.46 28.43 27.83 26.29 23.59 24.77 25.44 26.25 25.63 26.42 28.17 28.29 29.51 28.49 29.48 36.08 37.53 38.23 38.70 39.40 39.99 40.32 40.71 41.03 41.48 41.87 42.51 43.54 44.25 44.98 45.60 45.76
33.65 32.61 32.61 33.52 30.74 30.49 30.77 30.28 29.47 26.77 24.65 22.70 23.87 24.68 25.38 26.49 26.67 26.01 29.10 31.16 29.95 34.08 36.61 37.64 38.20 38.38 38.67 39.02 39.42 39.64 40.07 40.66 41.48 41.90 42.16 42.40 43.02 43.67
33.11 32.89 32.66 32.29 31.82 31.57 30.65 29.12 27.43 28.67 26.41 24.58 24.38 25.05 25.65 26.06 24.98 26.17 26.64 27.52 29.96 33.64 35.19 35.77 36.41 37.04 37.75 38.35 38.77 39.02 38.93 39.10 39.27 39.41 39.74 40.18 40.85 41.82
34.61 34.42 34.00 33.37 32.28 31.19 29.95 29.59 29.36 27.38 25.20 24.62 25.31 24.14 22.95 25.09 24.74 24.95 25.03 26.18 26.31 29.16 31.68 33.40 35.08 35.87 36.69 37.04 37.03 36.79 36.84 37.23 37.88 38.44 38.75 38.90 39.18 40.09
33.42 32.45 32.14 32.74 34.65 34.50 31.90 29.32 26.79 25.85 25.12 22.78 22.95 21.39 21.55 23.84 24.57 25.83 24.45 25.31 25.73 26.48 26.53 26.83 26.47 27.40 28.59 32.84 33.28 34.41 34.71 35.82 36.92 37.83 38.58 39.12 39.09 39.56
30.34 30.09 29.64 31.18 30.97 34.06 34.95 35.61 33.71 26.05 22.02 18.15 17.59 22.30 24.07 23.39 24.07 24.89 24.16 23.06 22.32 25.65 24.32 26.23 27.23 26.36 27.33 27.65 32.45 34.26 35.36 36.31 36.86 37.33 37.62 37.93 38.12 38.44
27.90 27.10 27.39 29.59 29.11 27.17 30.69 33.57 32.84 34.43 34.26 28.97 25.87 24.40 24.42 25.79 25.77 24.11 24.40 24.36 23.83 26.48 25.77 23.30 25.84 24.39 26.60 27.72 32.55 33.75 34.79 35.58 36.08 36.51 36.71 37.02 37.44 37.92
26.45 26.02 25.30 26.45 27.21 29.68 28.12 26.38 27.04 27.28 27.68 27.86 25.98 26.81 26.65 27.51 27.90 28.84 28.58 26.33 25.38 25.78 25.50 20.71 24.24 23.39 25.58 26.24 31.74 33.19 34.00 34.70 35.30 35.85 36.35 36.54 36.83 37.16
25.89 25.68 26.95 26.58 30.85 33.16 28.45 25.45 25.99 26.44 30.72 32.98 33.22 33.45 33.58 33.69 32.47 27.24 22.85 22.12 20.72 21.77 24.60 22.03 21.64 22.07 23.88 24.48 26.29 31.73 33.08 33.88 34.59 35.04 35.31 35.55 35.79 35.97
24.57 26.16 29.87 29.14 31.99 32.96 28.45 26.44 23.02 23.03 24.37 24.59 24.07 24.61 26.57 24.93 29.98 25.57 22.41 19.36 19.99 19.41 22.02 16.80 20.60 22.51 19.65 21.86 23.30 23.55 24.75 30.17 32.07 33.15 33.94 34.54 34.84 31.92
25.48 24.56 25.27 31.03 32.61 33.29 32.79 23.95 24.88 27.64 25.70 21.21 21.74 22.09 22.92 23.12 23.98 24.37 24.41 22.06 21.21 20.73 24.53 24.79 22.49 22.04 21.64 20.13 21.30 23.06 23.85 24.62 24.88 26.44 30.54 31.82 32.54 32.37
24.69 24.38 24.57 31.37 31.91 31.22 28.57 29.32 30.14 28.95 21.75 21.08 20.94 20.72 21.18 21.72 22.31 22.88 23.58 23.38 24.12 23.42 24.31 24.58 21.24 19.42 19.29 18.22 17.75 21.86 23.08 24.03 24.32 24.12 24.75 28.26 31.25 32.91
26.39 28.58 30.87 29.78 28.54 25.47 27.34 28.39 27.64 20.82 20.70 19.57 19.75 20.47 20.97 21.29 21.62 21.29 22.03 22.16 21.29 21.99 23.96 23.35 22.31 21.65 20.93 18.90 18.49 19.79 21.19 22.75 24.12 23.62 24.05 24.16 24.25 25.19
27.58 23.22 25.66 25.37 25.24 24.50 23.03 22.51 21.59 21.39 21.19 20.67 19.66 20.63 21.19 20.03 19.78 20.49 19.11 19.65 19.59 19.27 22.22 22.80 21.84 21.10 19.67 20.30 20.58 19.52 21.24 20.34 23.24 24.47 24.91 25.61 26.41 27.17
24.10 20.38 18.99 18.72 18.38 18.79 19.33 20.02 20.40 20.50 19.76 19.74 19.31 19.44 19.17 19.45 19.07 19.57 18.40 18.41 17.48 17.85 18.43 20.69 22.25 22.05 22.05 21.75 19.79 20.63 21.19 21.88 23.40 23.72 24.04 24.13 26.11 27.15
20.46 17.26 16.70 17.03 16.95 17.36 17.80 18.06 18.62 19.52 18.62 18.90 18.37 17.80 17.57 17.31 17.68 19.42 20.64 18.61 16.60 17.45 17.95 19.59 20.47 20.63 21.62 23.92 26.79 21.26 22.41 22.89 24.46 25.81 26.70 25.34 26.14 29.54
17.16 15.67 15.83 16.22 16.54 17.15 17.11 16.77 16.08 17.49 17.26 16.51 16.22 16.09 16.75 18.11 20.01 17.64 18.27 18.26 17.74 18.31 19.41 21.07 21.00 21.14 19.28 17.75 24.48 30.67 26.02 27.50 28.15 27.63 27.87 27.42 26.46 27.96
16.24 15.55 15.44 16.29 16.65 16.52 16.48 16.03 16.37 16.30 15.81 15.72 15.83 18.13 18.15 17.17 17.42 18.09 18.84 18.57 18.79 20.51 22.11 23.50 23.16 23.23 21.76 21.58 23.28 26.31 30.75 27.89 27.85 27.05 26.89 28.59 29.89 32.98
15.70 15.66 16.50 16.45 16.42 16.76 16.88 16.23 15.30 14.83 17.49 17.98 15.17 15.69 17.40 18.70 19.15 19.67 19.51 23.22 24.04 22.01 20.99 22.43 25.51 30.91 28.27 27.35 23.59 24.33 27.77 31.37 31.01 28.57 28.55 27.55 26.49 27.40
16.00 16.06 16.68 16.90 16.96 16.39 15.88 14.91 14.70 15.06 14.63 15.11 15.83 17.00 18.71 20.30 20.17 20.27 20.83 20.68 21.37 22.35 22.70 25.18 27.59 27.49 26.07 24.62 22.99 23.67 25.31 28.01 30.79 32.45 33.24 32.25 29.00 25.69
15.61 16.46 16.87 16.77 16.83 16.14 15.90 15.76 15.80 15.40 15.30 15.58 16.52 17.75 19.99 20.22 21.52 22.00 21.77 22.20 22.62 24.72 25.70 25.35 26.41 27.28 25.89 25.25 25.63 24.68 24.66 26.14 27.39 27.63 29.60 33.99 34.68 34.79

GFSNE_sfc_wetblb_042.txt.gz
Wetbulb
37.23 36.28 35.20 34.80 34.61 34.04 33.68 32.72 31.32 24.72 27.10 27.43 26.85 29.13 28.96 28.76 31.05 31.48 30.06 35.18 38.60 39.17 39.73 40.15 40.51 41.19 41.83 42.40 42.80 43.49 44.12 44.31 44.72 45.38 45.90 46.29 46.97 47.76
36.78 35.30 34.48 33.93 33.79 33.48 33.23 32.12 31.14 28.37 24.76 27.02 27.65 29.59 29.64 30.83 30.83 31.54 30.19 36.21 36.56 37.89 38.41 38.69 39.19 39.75 40.49 41.23 41.84 42.46 42.94 43.48 43.89 44.83 45.41 45.95 46.39 46.96
36.03 35.43 34.16 33.95 32.98 32.22 31.58 31.16 30.09 28.98 27.08 28.70 26.21 26.51 25.53 26.49 28.08 28.21 29.09 27.77 28.44 35.87 37.39 38.09 38.41 39.14 40.00 40.54 40.83 41.25 41.62 42.03 42.66 43.59 44.53 44.89 45.77 46.10
34.43 34.62 34.07 35.40 33.02 32.54 31.84 31.33 30.65 30.31 28.58 25.82 24.20 24.61 25.06 27.04 26.93 25.72 28.91 30.86 29.33 33.60 36.42 37.39 37.95 38.17 38.65 39.10 39.50 39.88 40.02 40.61 41.19 41.99 42.58 43.30 43.90 44.38
34.62 33.52 33.03 33.22 32.63 31.91 31.53 31.28 31.06 30.46 27.43 24.07 24.17 25.02 25.14 25.81 24.98 25.40 25.73 26.76 28.94 33.31 35.21 35.63 36.27 36.90 37.63 38.32 38.87 39.09 39.14 39.40 39.71 39.89 40.33 40.79 41.33 41.99
35.11 34.94 34.44 33.75 33.35 32.69 32.28 31.31 30.32 27.75 26.93 25.66 25.23 24.82 24.14 25.70 24.05 24.32 24.74 25.26 26.39 28.94 31.57 33.26 34.74 35.53 36.39 36.91 36.99 36.77 36.96 37.48 38.24 38.92 39.13 39.19 39.53 40.37
34.20 33.44 33.04 32.80 33.71 34.10 32.30 30.51 29.54 27.90 25.62 23.10 22.52 21.83 22.64 23.27 24.35 26.00 24.52 25.36 25.38 26.26 26.36 26.40 26.15 26.67 28.13 32.41 33.09 34.33 34.65 35.68 36.94 37.96 38.50 39.06 39.29 39.75
31.67 31.43 31.23 32.02 31.72 32.60 33.69 34.58 32.93 27.57 26.33 22.35 21.14 22.68 23.56 24.60 23.78 23.90 24.16 23.30 23.05 25.40 23.57 25.82 26.72 26.36 27.34 27.59 32.29 34.08 35.31 36.27 36.94 37.47 37.82 38.21 38.33 38.80
29.56 28.51 28.82 30.04 29.35 28.38 30.76 33.05 32.42 34.35 33.88 28.03 25.29 24.40 24.51 25.02 24.91 23.75 24.20 24.67 24.12 26.55 25.29 23.40 25.76 24.51 26.74 27.61 32.48 33.62 34.80 35.59 36.20 36.83 37.15 37.18 37.50 37.93
27.96 27.18 25.77 25.59 26.57 28.82 28.19 26.75 27.64 27.55 27.52 27.87 26.28 26.46 25.92 26.52 26.46 27.03 27.39 25.50 25.01 25.47 25.11 21.07 24.39 23.50 25.69 26.07 31.51 33.05 34.02 34.87 35.51 36.09 36.59 36.75 36.91 37.26
26.32 25.70 26.37 25.73 30.01 32.46 28.13 25.01 26.44 26.31 29.89 32.16 32.45 32.83 32.96 32.91 31.45 26.37 21.93 21.44 20.10 21.30 24.15 21.92 21.39 21.30 23.56 24.38 26.27 31.63 33.21 34.12 34.64 35.11 35.42 35.58 35.89 36.45
24.23 25.65 29.40 28.26 31.68 32.81 28.55 26.46 22.52 22.48 23.44 23.92 23.32 23.94 25.83 23.95 29.47 24.66 20.59 18.15 19.04 19.05 21.57 19.09 17.62 21.92 18.63 21.73 21.59 23.62 25.36 29.90 31.80 32.90 33.70 34.36 34.66 32.16
25.29 24.12 25.28 30.72 32.52 32.99 32.43 23.51 24.14 26.56 24.53 20.56 20.64 21.11 22.18 22.30 23.43 23.76 23.85 19.37 20.34 19.60 23.74 24.35 21.54 21.29 21.15 19.86 21.02 22.45 23.38 24.07 24.29 25.86 29.98 31.38 32.27 32.19
24.94 24.56 24.86 31.28 31.20 30.57 28.01 29.03 29.91 27.68 20.90 20.20 20.21 20.00 20.49 21.13 21.57 22.34 22.97 22.49 22.79 22.49 23.40 23.90 20.56 18.46 18.92 17.91 17.43 21.37 22.35 23.27 23.65 23.52 24.25 27.72 30.79 32.48
26.99 28.96 29.22 28.82 27.57 24.43 26.47 27.56 26.32 20.03 20.00 18.92 19.15 19.68 19.60 20.17 20.52 19.97 20.51 20.50 19.44 20.97 23.26 22.32 21.56 20.96 20.37 18.20 17.64 19.19 20.38 22.39 23.50 22.91 23.32 23.82 24.06 25.10
26.92 22.02 24.90 24.28 24.13 23.54 21.87 21.50 20.89 20.69 20.87 19.94 18.72 19.74 20.23 15.24 18.59 18.97 17.86 18.51 17.92 18.50 21.66 22.47 21.26 20.83 19.12 19.47 19.68 18.57 20.37 19.34 22.72 23.32 23.60 24.51 25.60 26.57
22.94 19.44 17.85 17.49 17.24 17.76 18.49 19.25 19.69 19.84 19.11 18.91 17.77 17.91 18.23 18.37 18.22 18.70 17.97 17.75 16.66 17.32 18.26 20.62 22.09 22.34 21.97 21.25 19.20 20.01 20.41 20.77 22.31 22.80 23.37 23.50 25.28 26.47
19.25 16.14 15.39 15.86 16.01 16.60 17.14 17.47 17.98 18.84 17.83 17.61 16.85 16.27 15.74 16.17 16.35 18.77 20.07 17.89 16.50 17.25 17.60 19.18 19.71 20.16 21.45 23.88 26.72 21.02 21.74 22.18 23.89 25.59 26.58 25.19 25.80 28.79
16.10 14.49 14.67 15.39 15.84 16.45 16.34 15.99 15.37 16.71 14.78 14.49 14.45 14.17 16.04 15.67 19.30 17.99 17.41 18.01 18.32 19.05 19.37 20.20 20.99 21.69 19.10 17.29 24.69 30.90 25.70 26.54 26.93 26.45 26.94 26.63 25.95 27.67
15.26 14.35 14.57 15.73 16.07 16.00 15.95 15.30 15.25 15.42 14.56 14.27 13.82 14.95 17.25 17.11 17.42 18.84 19.46 18.90 18.62 19.79 21.49 22.82 21.83 22.40 22.14 22.24 23.78 26.37 30.36 27.06 26.92 26.50 26.70 28.29 29.53 32.65
14.98 15.03 15.94 16.02 16.11 16.30 16.19 15.39 14.49 13.92 16.13 17.23 14.33 13.39 15.56 17.55 17.92 19.50 19.93 24.02 24.96 22.84 21.12 21.75 24.21 30.31 28.42 27.97 23.85 24.54 27.69 31.32 30.89 28.32 28.19 27.15 26.07 26.91
15.36 15.41 16.09 16.64 16.78 16.07 14.95 14.37 13.30 13.39 13.47 13.53 13.74 14.68 16.30 17.66 18.94 19.76 20.59 21.14 21.94 22.35 22.42 23.81 26.29 28.03 27.26 25.75 23.98 24.29 25.48 28.02 30.56 31.96 32.98 31.82 28.18 25.09
14.87 15.53 15.76 15.44 15.95 15.89 15.41 14.41 14.21 14.62 14.84 16.36 15.71 15.81 17.49 18.27 21.05 22.44 22.80 23.57 23.01 22.39 24.15 25.92 26.54 27.73 27.42 27.18 26.85 25.64 24.73 25.51 27.01 27.00 29.21 33.70 34.39 34.51

GFSNE_sfc_wetblb_045.txt.gz
Wetbulb
41.87 40.11 37.89 36.99 37.01 37.10 35.93 36.58 37.27 30.83 30.61 31.31 32.31 35.52 35.55 35.30 35.19 37.57 37.11 36.66 38.80 39.82 39.97 40.42 40.55 40.95 41.59 42.25 42.92 43.55 44.20 44.64 45.26 45.79 46.46 46.93 47.11 48.28
38.96 37.32 36.06 35.58 35.38 36.13 35.31 34.03 33.67 33.57 31.34 31.84 31.56 33.28 33.50 33.74 34.87 36.33 36.12 36.53 37.82 38.56 39.02 38.99 39.28 39.84 40.40 40.98 41.63 42.49 43.14 43.86 44.31 45.03 46.01 46.50 46.90 47.20
36.71 36.33 35.36 35.90 34.06 33.50 34.25 33.78 33.13 32.78 30.43 31.75 31.01 31.06 30.77 32.00 33.26 35.09 35.35 34.84 35.67 36.77 38.00 38.45 38.62 39.00 39.64 40.22 40.76 41.42 41.93 42.47 43.15 43.96 44.54 45.16 45.92 46.16
36.71 35.28 34.50 35.80 34.41 34.70 33.92 32.54 32.16 31.65 30.99 30.00 31.25 29.46 29.86 32.40 33.15 33.31 33.08 34.20 34.68 35.45 36.96 37.75 37.98 38.10 38.60 39.11 39.54 40.15 40.37 40.93 41.41 41.97 42.95 43.38 44.15 44.66
36.17 35.18 34.57 34.34 33.43 33.36 33.38 32.78 32.81 34.51 32.35 30.27 29.08 30.04 30.70 31.88 32.03 32.60 32.44 33.25 33.20 34.24 35.67 36.09 36.61 37.05 37.72 38.30 38.79 39.14 39.29 39.55 39.86 40.07 40.50 41.02 41.83 42.42
35.48 35.54 35.08 34.75 33.94 32.81 33.17 33.74 34.30 32.07 30.95 30.00 29.91 29.63 30.23 31.36 30.24 29.52 29.97 32.41 31.48 32.46 33.75 34.41 35.48 35.99 36.53 37.07 37.03 36.79 36.96 37.38 38.17 38.88 39.30 39.31 39.70 40.64
34.73 34.11 33.06 33.71 34.29 34.14 33.33 32.98 32.21 31.46 31.09 29.93 29.39 29.56 29.70 29.52 29.24 30.91 29.14 29.77 30.76 31.82 31.16 31.89 32.00 32.25 32.71 34.09 34.20 34.71 34.96 36.02 37.16 38.05 38.71 39.19 39.50 39.86
32.00 32.32 32.42 33.65 33.37 33.99 33.97 34.87 34.70 31.77 31.15 30.25 29.88 28.38 29.18 29.45 29.95 28.90 28.36 27.32 25.16 32.52 29.97 29.80 32.09 30.76 31.86 32.51 33.79 34.46 35.50 36.42 36.99 37.40 37.88 38.34 38.48 39.19
31.30 30.64 30.78 31.97 31.63 30.33 31.85 32.57 33.01 33.86 33.95 32.19 29.46 29.22 28.72 29.88 30.36 28.43 28.25 27.31 26.69 29.96 30.04 27.45 30.48 29.06 31.41 31.84 33.33 34.01 34.87 35.57 36.19 36.76 37.17 37.33 37.85 38.37
29.94 29.63 29.33 29.50 29.37 31.03 30.78 30.96 31.13 31.01 31.21 31.07 31.22 30.81 31.05 31.16 30.56 30.03 29.42 28.66 28.91 29.49 29.91 23.93 29.19 28.19 30.46 30.99 32.69 33.34 34.00 34.88 35.49 36.07 36.57 36.95 37.11 37.46
28.62 28.76 29.44 29.02 30.23 32.10 31.21 29.65 29.98 30.03 30.75 31.83 31.99 32.52 32.62 32.46 31.84 29.51 27.06 25.33 23.11 25.30 28.53 25.43 26.70 27.09 27.89 29.05 30.27 32.34 33.23 33.99 34.55 34.72 35.09 35.38 35.87 36.39
28.15 28.58 29.46 30.10 31.69 32.72 32.01 30.20 26.45 27.13 27.95 28.35 28.18 28.10 28.15 27.66 29.38 28.26 26.82 23.38 22.63 22.35 28.08 24.57 25.70 25.26 23.11 28.73 29.58 29.95 29.74 31.32 32.17 32.80 33.54 34.04 34.34 32.78
27.52 27.42 28.45 30.63 32.17 32.31 31.75 27.45 27.24 29.69 26.74 25.74 25.59 25.97 26.46 26.72 27.09 27.41 27.03 25.39 22.11 22.22 27.12 26.16 24.96 24.42 23.18 23.27 26.27 28.13 28.60 28.76 29.03 29.55 30.77 31.46 31.99 32.10
27.50 28.15 28.71 30.75 30.04 29.54 28.31 28.40 29.33 28.44 25.16 24.16 23.92 24.23 24.61 25.14 25.75 25.95 25.80 25.70 26.12 24.79 26.41 26.14 22.75 22.96 22.13 21.46 21.43 26.40 28.31 29.03 29.17 28.50 29.31 30.15 31.24 32.30
29.45 29.53 28.60 27.95 26.65 24.91 25.72 26.81 26.04 23.89 23.29 22.68 22.95 23.68 24.37 24.75 24.30 24.30 24.79 25.06 24.00 24.25 25.43 24.93 24.29 23.97 23.61 21.52 21.23 22.84 24.03 26.80 28.29 27.54 28.11 28.44 28.71 29.22
27.04 25.57 25.41 24.45 23.65 23.82 23.09 23.27 23.51 23.70 23.68 23.45 22.48 23.11 23.54 23.40 23.25 24.29 22.67 23.31 22.19 23.28 26.78 25.72 24.81 24.17 22.53 23.36 23.14 21.82 24.84 22.74 27.28 27.99 28.32 28.47 28.96 29.24
24.88 22.46 20.98 20.34 20.34 20.82 21.68 22.10 22.54 22.45 22.17 22.08 21.22 20.95 21.31 21.86 22.12 23.34 22.32 22.12 21.00 22.06 23.61 26.18 27.20 26.35 25.62 24.07 21.42 23.92 24.53 25.23 27.18 27.30 27.07 25.95 28.32 30.06
21.27 18.97 18.80 19.21 19.23 19.64 19.99 20.43 20.97 21.20 21.02 20.46 20.02 19.74 19.27 19.69 20.48 22.01 24.22 23.10 21.37 22.23 22.90 24.87 25.58 24.61 25.46 27.22 27.56 23.61 25.62 26.07 28.52 29.68 29.05 26.42 26.79 30.61
18.99 18.50 18.35 18.84 19.18 19.57 19.67 19.74 19.42 20.28 19.53 18.83 18.54 18.34 18.68 19.13 20.85 21.23 22.48 22.72 22.51 23.73 24.75 25.63 24.70 24.34 22.12 20.72 27.38 31.56 28.22 29.61 29.52 28.14 29.40 28.95 27.79 29.73
18.51 18.14 18.42 18.93 19.18 19.30 19.53 19.28 19.19 19.39 19.08 18.55 18.34 18.30 18.39 19.44 19.18 20.10 21.83 22.19 22.66 24.47 25.43 27.14 26.77 25.87 24.02 23.13 24.50 28.25 31.39 29.24 28.94 28.38 28.69 30.57 31.55 33.17
17.94 18.25 18.85 19.02 19.20 19.50 19.42 19.00 18.23 17.89 19.37 20.53 18.69 17.64 17.71 18.33 18.88 20.69 22.14 25.19 26.04 25.03 23.44 24.51 27.83 30.92 29.05 28.47 26.59 27.23 30.57 32.39 31.84 29.92 29.80 28.99 28.14 28.80
17.85 18.01 18.76 19.20 19.18 19.00 18.82 18.49 17.96 18.20 17.75 17.98 18.58 19.09 18.86 19.23 19.62 20.85 22.41 23.40 25.10 25.83 25.42 27.00 28.29 28.62 28.82 27.27 26.21 27.13 28.28 30.66 32.15 32.55 32.79 31.62 29.20 26.54
17.76 18.10 18.71 18.65 18.51 18.11 18.37 18.50 18.06 18.19 18.20 18.92 19.90 20.87 20.06 19.49 21.74 22.67 23.25 24.72 24.94 25.46 25.96 26.10 28.92 29.44 28.63 28.58 27.62 27.38 27.24 27.75 28.94 28.79 30.07 33.33 33.83 33.77

GFSNE_sfc_wetblb_048.txt.gz
Wetbulb
54.30 51.89 47.36 41.37 40.29 40.14 40.22 41.54 42.19 34.49 36.11 32.72 34.02 35.71 36.37 36.96 37.39 37.23 37.12 39.01 39.95 40.60 41.13 41.21 41.26 41.45 41.81 42.38 43.02 43.59 44.11 44.68 45.28 46.02 46.55 47.13 47.82 48.71
51.03 46.02 40.87 38.63 37.89 38.01 38.58 36.26 37.44 36.83 32.73 32.90 32.30 33.80 34.34 35.03 36.26 37.07 35.93 38.11 38.95 39.85 40.05 40.01 40.18 40.41 40.72 41.24 41.74 42.36 42.96 43.73 44.60 45.57 46.36 46.71 47.06 47.60
41.68 39.23 37.20 37.84 35.98 35.54 35.70 35.96 35.37 35.16 33.39 32.25 32.84 32.97 33.20 33.65 34.30 34.76 36.25 36.97 37.63 38.62 39.07 39.38 39.47 39.56 39.97 40.27 40.73 41.32 41.79 42.46 43.20 43.95 44.82 45.23 46.01 46.46
37.46 37.09 35.80 36.36 35.93 36.54 36.26 34.29 34.24 33.82 33.77 32.80 32.49 31.63 32.18 33.38 34.22 34.44 35.31 36.29 36.28 37.25 38.32 38.51 38.78 38.74 38.93 39.23 39.61 40.12 40.49 41.03 41.55 41.92 42.96 43.49 44.34 45.01
37.00 36.46 35.98 36.25 34.65 34.24 34.88 33.54 32.84 33.47 33.17 32.71 31.76 32.88 33.19 34.42 34.23 35.00 35.14 35.43 35.83 36.40 37.33 37.39 37.53 37.87 38.29 38.74 39.13 39.38 39.49 39.73 39.95 40.16 40.59 41.22 41.97 42.69
36.61 36.53 35.69 35.59 34.51 33.47 33.43 32.41 33.45 34.17 34.59 32.93 31.52 32.53 33.19 33.70 33.35 31.55 32.31 34.79 33.97 34.91 35.58 36.39 36.72 36.79 37.18 37.49 37.61 37.31 37.44 37.88 38.48 38.95 39.26 39.48 39.74 40.61
35.72 35.12 34.19 35.46 36.35 35.13 35.25 34.63 34.59 33.13 32.86 32.73 31.90 31.97 32.37 32.38 31.43 32.79 30.97 31.70 32.47 34.11 33.29 34.39 34.95 35.22 35.80 36.69 36.45 36.41 36.62 36.99 37.48 38.18 38.87 39.36 39.54 39.96
32.37 32.50 33.56 35.14 35.76 36.45 36.52 36.11 35.59 33.57 32.58 32.34 31.83 30.17 30.56 32.04 32.51 31.52 30.40 28.78 27.20 34.06 32.32 31.74 34.77 33.56 34.74 35.50 36.55 36.47 36.54 36.96 37.35 37.71 38.08 38.52 38.89 38.88
32.26 32.98 33.11 33.51 32.87 31.87 32.55 33.17 33.73 34.04 34.36 33.27 31.24 31.50 30.99 32.16 31.78 29.86 29.84 29.47 28.20 31.81 32.05 29.41 33.23 31.86 34.38 35.05 36.15 36.08 36.13 36.31 36.54 36.90 37.32 37.76 38.10 38.41
31.70 31.95 31.54 31.33 31.57 32.16 31.56 31.69 32.12 32.81 32.98 33.16 32.90 32.61 32.77 32.87 32.65 32.66 31.30 30.70 31.57 32.55 33.19 27.84 31.94 30.90 33.21 34.11 35.49 35.48 35.50 35.72 35.91 36.28 36.72 37.05 37.14 37.35
31.77 32.35 31.85 30.88 30.34 31.89 32.19 31.40 31.43 32.03 32.98 32.36 32.23 32.45 32.97 33.15 32.80 30.88 28.84 28.23 26.82 28.71 31.90 29.09 30.14 30.03 31.54 32.12 33.09 34.48 34.43 34.59 35.01 35.52 35.93 35.95 36.00 36.38
30.80 30.72 29.71 30.92 31.71 32.80 32.60 31.60 29.27 29.69 30.16 30.43 31.12 31.07 31.15 30.80 30.47 30.55 29.99 26.26 25.44 25.11 31.46 27.30 28.13 27.66 25.56 30.77 31.92 32.98 32.52 33.88 34.12 34.46 34.66 34.80 34.84 32.99
29.00 29.08 30.01 31.02 32.20 31.98 31.61 30.81 29.04 30.56 30.62 29.35 29.11 29.43 30.15 30.47 30.66 30.97 30.54 28.43 24.94 24.68 29.67 28.98 27.50 27.01 25.96 25.48 29.04 31.40 32.03 31.87 32.00 32.77 33.47 33.74 33.81 33.30
29.15 30.28 30.97 30.34 29.96 29.45 28.87 28.27 29.41 29.56 28.61 27.44 27.47 27.92 28.54 29.24 30.07 29.98 29.50 29.25 29.46 27.98 29.72 29.35 25.40 25.47 24.33 23.26 23.77 29.45 31.74 32.26 32.04 30.96 31.85 32.79 33.43 33.86
30.89 30.10 28.70 27.82 26.97 26.70 26.03 27.12 27.13 27.21 26.79 26.20 26.95 27.85 28.81 29.05 28.56 28.18 29.73 30.05 28.67 28.80 28.99 27.87 26.69 25.59 25.37 23.27 22.88 24.72 26.39 29.24 30.68 30.13 30.73 31.28 31.49 31.87
28.65 29.18 26.31 25.03 24.53 24.96 25.33 26.13 26.81 27.16 26.71 26.89 26.87 27.45 27.97 27.47 27.39 28.71 27.17 27.93 26.53 27.86 32.05 30.66 29.11 27.06 24.09 24.45 24.50 23.48 26.73 24.74 29.40 30.31 30.99 31.07 31.16 31.08
27.62 26.24 25.07 24.68 24.57 25.07 25.68 25.90 26.25 26.05 25.54 26.46 25.51 25.23 25.47 26.31 26.44 28.09 27.08 26.23 24.65 24.92 27.07 30.50 31.70 30.50 28.89 27.06 23.83 24.93 25.17 26.79 29.74 30.20 29.48 28.32 30.32 31.83
24.74 23.18 23.40 23.74 23.62 24.12 24.16 24.76 25.46 25.04 25.53 25.07 24.53 24.32 23.82 24.11 24.34 25.87 26.58 25.86 24.83 24.93 25.17 26.86 27.96 27.23 28.15 29.50 30.74 26.64 27.76 27.42 30.11 31.08 31.01 29.15 29.17 32.15
22.74 23.11 22.60 23.20 23.64 23.91 24.36 24.67 24.43 25.14 24.24 23.16 23.29 23.05 22.81 22.72 23.04 23.65 25.21 25.44 25.22 25.54 26.01 27.71 27.51 26.74 24.00 22.84 29.59 33.15 29.21 30.04 30.10 29.53 30.48 29.84 29.12 31.24
22.40 22.34 22.76 23.40 23.70 23.96 24.52 24.38 24.29 24.40 24.23 23.72 23.18 23.13 23.05 22.29 22.27 23.43 24.81 25.35 25.57 26.07 26.53 28.34 28.10 28.36 26.23 25.19 25.66 29.25 31.91 29.68 29.69 29.30 29.83 31.40 32.47 34.29
22.16 22.30 23.18 23.43 23.90 24.26 24.22 23.83 23.22 22.79 23.08 22.98 22.90 22.79 23.35 22.71 22.31 23.67 24.66 26.16 27.00 27.13 26.01 26.70 29.83 32.62 31.09 30.35 26.64 27.44 31.41 33.26 32.59 31.12 31.07 29.72 28.36 29.42
21.91 21.99 22.82 23.49 23.86 24.10 24.05 23.59 22.71 22.95 23.28 23.62 23.67 24.32 24.29 24.17 22.44 22.50 23.60 23.62 24.51 25.83 25.65 27.98 29.62 30.57 30.00 27.96 27.13 27.84 29.18 31.27 33.19 33.61 33.63 32.49 29.23 26.16
21.96 22.08 22.51 23.21 23.65 23.62 23.19 23.08 22.84 23.07 23.72 23.92 23.74 24.08 24.45 23.70 24.09 24.36 23.73 23.80 24.89 25.32 26.77 27.53 29.61 31.29 29.95 29.60 28.96 28.96 28.70 28.92 29.87 29.83 31.17 34.14 34.00 33.79

GFSNE_sfc_wetblb_051.txt.gz
Wetbulb
56.39 56.12 53.57 49.12 46.28 44.04 42.93 43.66 44.09 38.06 33.71 34.74 33.71 36.30 36.78 37.10 38.10 37.12 36.59 38.48 40.38 42.07 42.50 42.49 42.58 42.66 42.68 43.10 43.44 43.90 44.43 44.87 45.29 45.90 46.62 47.13 47.76 48.51
53.59 52.84 47.63 42.28 41.35 41.39 39.56 38.79 40.13 38.58 35.54 34.25 33.22 34.48 35.15 35.60 36.85 37.97 36.99 38.78 39.93 41.47 41.70 41.39 41.31 41.62 41.86 42.06 42.30 42.68 43.15 43.75 44.50 45.34 46.15 46.62 47.10 47.52
47.96 44.49 39.55 38.84 37.91 37.98 37.88 38.85 37.33 37.22 36.27 32.32 33.73 33.86 34.14 34.91 35.83 35.66 36.04 35.61 36.14 39.78 40.51 40.54 40.78 40.71 41.06 41.20 41.29 41.68 41.89 42.49 43.13 43.97 44.66 45.22 45.65 46.06
40.01 38.97 37.27 37.86 36.56 37.31 37.56 36.32 36.33 37.72 35.68 33.57 32.98 32.03 32.39 33.37 33.96 34.17 35.25 36.60 36.44 38.16 39.45 39.51 39.84 39.99 40.08 39.94 40.09 40.44 40.75 41.21 41.70 42.31 42.96 43.50 43.94 44.33
38.01 36.82 36.83 36.67 35.82 36.42 35.79 34.72 34.49 34.91 33.63 33.49 32.14 33.38 33.58 33.72 33.66 34.86 34.94 35.18 36.09 37.91 39.03 39.14 38.83 38.77 39.12 39.49 39.78 40.05 40.15 40.46 40.58 40.68 40.95 41.35 41.96 42.70
37.54 37.38 37.20 36.98 35.66 34.22 34.02 33.23 33.57 32.77 33.62 33.79 33.65 33.63 34.07 34.60 33.74 31.78 31.19 34.02 33.15 35.23 36.24 36.81 37.88 38.18 38.74 38.96 38.96 38.69 38.59 38.80 39.20 39.50 39.69 39.76 40.03 40.65
35.36 35.37 35.52 36.73 37.57 36.69 34.85 34.49 34.41 34.20 33.71 32.98 32.29 32.38 31.93 32.06 31.23 31.98 30.40 31.01 31.74 32.68 32.03 32.55 32.92 33.30 34.09 36.89 37.23 37.77 37.99 38.32 38.57 38.97 39.37 39.68 39.65 39.97
32.51 32.81 33.99 35.50 37.46 38.58 37.91 37.38 35.91 34.10 33.24 33.08 32.77 30.71 30.36 30.58 31.18 30.19 29.96 27.61 25.82 32.20 29.92 30.09 32.79 31.63 32.70 33.79 37.17 37.77 38.04 38.17 38.19 38.32 38.62 38.96 39.08 39.14
32.62 32.79 33.12 33.65 33.32 32.76 33.68 33.79 34.12 34.95 34.69 33.54 30.53 30.32 29.83 30.90 30.17 28.66 28.19 28.02 27.43 29.89 29.97 27.83 31.30 30.36 32.49 34.17 36.97 37.29 37.46 37.59 37.69 37.73 37.79 37.93 38.01 38.25
32.58 32.35 31.98 31.71 31.89 32.37 31.87 31.78 31.63 32.15 32.52 32.72 31.84 31.61 31.66 31.87 31.13 30.95 29.74 29.58 30.07 30.76 31.34 26.21 29.96 29.21 31.49 32.31 36.26 36.66 36.77 36.91 37.06 37.05 37.16 37.41 37.54 37.85
32.20 32.35 31.90 30.94 30.78 31.84 31.92 31.60 30.57 30.99 34.10 33.30 33.15 33.12 33.38 33.66 33.25 30.06 27.16 26.30 25.87 27.08 29.81 27.54 27.86 28.17 29.07 29.16 30.69 35.10 36.06 36.28 36.46 36.64 36.80 36.79 36.85 37.02
30.72 30.21 30.60 31.20 32.25 32.95 32.16 31.02 28.87 28.46 29.01 29.16 29.08 30.44 31.36 30.43 32.42 29.32 27.97 24.77 25.83 24.71 28.76 25.07 26.17 26.48 24.19 27.72 28.61 29.80 29.75 34.01 35.29 35.81 35.98 36.00 36.08 33.09
28.46 28.38 29.55 31.61 32.25 31.92 31.76 29.57 28.64 29.57 29.13 28.13 27.52 27.19 27.94 28.50 28.96 29.32 29.22 27.03 25.73 24.68 28.48 28.51 24.26 25.44 25.45 24.72 26.79 28.35 28.65 28.96 29.75 31.16 34.44 34.82 34.97 34.39
28.86 29.53 30.30 30.45 30.20 29.71 28.76 29.29 29.46 29.57 27.25 25.79 25.80 26.15 27.05 28.14 29.83 30.06 29.83 29.74 29.59 27.87 28.35 28.85 25.73 24.53 23.42 22.08 21.78 25.15 26.69 27.96 28.11 28.00 29.17 32.26 34.11 34.73
29.87 29.27 29.33 28.69 28.04 27.39 27.21 27.70 27.86 26.01 25.59 25.04 25.62 26.95 28.67 29.08 28.96 27.76 28.52 29.18 28.87 29.01 28.84 27.07 26.77 25.74 24.50 22.36 22.05 23.24 23.75 24.78 26.53 26.45 27.43 29.18 29.31 30.58
29.50 29.33 27.32 26.47 26.72 25.81 25.59 26.01 25.94 25.93 25.58 25.43 25.59 26.34 26.96 27.17 26.62 27.77 26.45 26.53 26.10 26.19 28.06 29.08 29.22 28.07 25.03 25.11 24.58 23.28 24.74 22.97 25.79 26.26 27.10 28.68 30.04 30.69
27.59 26.19 24.56 24.20 23.90 24.48 25.04 25.45 25.65 25.52 24.80 25.69 25.49 24.97 24.89 25.26 25.48 26.73 26.39 25.74 24.10 24.17 25.36 28.27 29.79 30.14 29.55 27.59 24.81 25.74 25.75 26.08 27.34 27.44 27.96 27.31 28.86 30.23
24.38 23.10 22.76 23.37 23.20 23.90 24.06 24.42 25.17 25.81 25.36 25.74 24.50 23.97 23.60 23.33 23.12 23.92 24.31 24.30 23.85 24.47 24.93 26.59 27.18 26.57 27.00 28.36 31.14 26.43 27.03 27.24 28.48 29.41 29.49 28.06 28.18 30.90
22.53 22.65 22.39 22.90 23.44 23.94 24.09 24.86 24.28 25.00 25.99 23.91 23.47 23.42 23.26 23.00 22.55 21.71 22.39 23.57 23.49 24.80 26.22 27.00 26.49 25.86 23.19 21.90 26.94 33.62 27.24 27.50 27.56 27.31 28.00 28.30 27.87 29.63
22.42 21.93 22.24 23.17 23.59 23.93 24.24 24.41 23.90 23.96 24.13 23.98 23.38 23.45 23.54 23.44 22.58 21.69 21.98 22.24 23.06 23.76 24.68 26.76 27.33 26.60 25.29 24.83 25.70 28.18 32.38 27.68 26.54 26.05 27.22 29.54 31.26 34.25
22.11 22.07 22.70 22.96 23.62 24.63 24.25 24.52 23.80 22.83 23.27 23.39 22.95 22.55 22.76 22.98 22.53 22.66 22.30 24.39 24.89 23.97 23.14 24.27 26.26 31.51 29.57 28.93 25.60 25.63 28.36 32.48 31.32 28.68 28.96 28.47 27.61 28.38
21.92 21.66 22.21 22.77 23.09 24.09 23.95 23.81 23.16 22.70 22.92 22.68 23.02 23.48 23.98 23.93 23.01 23.01 22.85 21.90 22.11 22.76 23.34 25.27 27.27 27.96 27.52 26.33 25.26 26.29 27.46 29.67 32.63 34.17 34.23 33.02 28.67 25.25
21.83 21.96 21.96 22.30 22.79 22.99 23.06 23.07 22.78 22.59 23.06 22.97 22.88 23.72 23.83 22.89 23.66 24.03 23.56 23.32 23.15 23.05 23.77 24.43 26.28 27.58 27.91 27.83 28.72 27.66 27.67 28.12 28.84 28.65 29.75 34.13 34.37 34.03

GFSNE_sfc_wetblb_054.txt.gz
Wetbulb
57.09 56.22 55.17 50.04 45.73 46.18 46.23 45.81 45.17 39.54 36.91 34.54 34.30 36.82 37.22 38.04 40.58 37.57 37.37 39.74 40.56 41.55 43.02 44.15 44.54 44.52 44.45 44.11 44.20 44.54 44.76 45.06 45.60 46.09 46.53 47.06 47.73 48.54
54.63 53.86 49.92 44.78 43.54 43.80 43.02 41.89 42.42 41.72 35.45 34.82 34.03 34.95 36.93 37.69 39.49 38.17 37.63 38.72 39.77 41.91 43.24 44.09 43.86 43.13 42.81 42.93 43.10 43.48 43.64 44.08 44.62 45.25 45.90 46.45 46.95 47.41
49.02 47.31 42.92 41.80 39.83 39.24 40.01 39.72 39.40 39.46 36.44 33.16 34.33 34.17 33.72 35.08 36.72 36.58 37.04 36.85 37.06 40.85 41.90 42.32 41.98 41.51 41.73 41.96 42.09 42.44 42.48 42.87 43.31 43.83 44.38 45.04 45.64 45.93
40.72 39.85 38.47 39.17 37.98 39.39 39.82 38.19 37.63 37.73 36.68 33.45 32.90 32.51 33.02 33.96 34.65 34.66 36.01 37.52 36.78 38.51 39.84 40.57 40.38 40.54 41.00 41.18 40.78 40.84 41.21 41.60 41.90 42.38 42.95 43.55 44.13 44.50
39.44 39.17 37.59 37.43 36.81 36.79 36.36 35.37 35.04 35.49 34.68 34.40 31.75 33.22 33.71 34.02 33.35 33.87 34.09 34.59 35.58 37.85 39.13 39.41 39.34 39.24 39.42 39.89 40.33 40.55 40.62 40.73 40.90 40.99 41.29 41.49 42.11 42.84
37.76 37.63 37.40 37.01 35.91 34.65 34.15 33.49 34.08 33.45 33.67 33.27 33.15 33.49 33.72 33.23 31.17 30.44 30.22 32.08 30.48 34.15 35.08 36.39 37.65 38.18 38.66 39.07 39.26 38.98 38.95 39.27 39.78 40.16 40.26 40.27 40.46 41.00
36.08 36.28 36.13 37.48 37.94 36.96 35.30 34.46 34.52 33.33 33.02 31.24 30.62 30.52 31.43 31.19 29.57 30.30 27.94 28.06 27.92 28.63 27.69 27.62 28.69 28.93 30.51 35.65 36.46 37.16 37.79 38.81 39.39 39.74 40.13 40.22 40.08 40.36
32.67 33.35 34.45 36.76 38.61 39.16 38.39 37.44 36.23 33.42 32.48 32.18 30.41 28.24 27.01 27.32 27.72 27.62 25.54 24.50 21.88 28.31 26.22 26.86 28.48 28.62 28.97 29.95 35.94 37.62 38.33 38.70 38.93 39.18 39.40 39.42 39.30 39.51
32.37 32.87 33.24 33.87 33.39 32.97 34.95 34.78 34.37 35.14 34.70 31.32 28.25 27.22 26.48 27.99 25.88 24.72 24.95 23.35 23.18 26.95 26.38 25.76 27.08 27.21 28.80 32.19 36.10 37.06 37.73 38.16 38.42 38.61 38.68 38.78 38.95 39.16
32.07 32.18 31.66 31.07 31.32 31.89 29.81 29.29 28.75 29.36 30.59 31.28 28.46 28.20 28.33 28.52 27.87 25.07 23.35 24.78 26.26 27.09 27.27 22.39 25.43 26.07 28.58 28.11 35.22 36.15 36.45 37.09 37.60 37.73 37.93 38.10 38.06 38.02
30.13 29.59 29.05 27.90 31.80 32.90 30.19 28.98 27.70 27.58 33.98 33.75 33.23 33.42 33.33 33.69 32.62 26.51 21.47 19.71 20.40 23.91 26.03 23.62 24.04 24.11 26.29 27.63 28.38 34.30 35.47 35.63 35.76 36.23 36.97 37.36 37.55 37.57
25.61 26.71 31.85 30.36 32.93 33.63 28.41 25.85 24.48 24.07 24.82 25.45 25.36 27.02 28.75 27.66 32.48 27.10 22.80 13.89 15.79 20.89 24.83 19.17 20.67 21.07 20.09 23.98 24.40 26.63 27.26 32.28 34.09 34.50 35.08 35.74 36.27 33.58
25.25 24.30 26.44 31.86 32.02 31.71 31.42 25.05 25.61 26.68 26.64 23.85 23.46 22.67 23.47 24.25 25.28 25.56 25.84 18.28 14.23 24.51 26.89 27.18 15.07 21.23 25.04 24.21 22.87 23.52 26.06 26.12 26.86 28.35 31.85 32.95 33.92 33.99
25.17 24.91 26.23 30.70 30.18 29.88 27.90 29.00 29.34 28.86 23.49 22.31 22.18 21.85 22.32 22.80 24.26 28.36 29.02 27.82 28.40 27.57 24.97 27.92 24.98 24.05 23.36 22.15 22.03 23.24 24.03 25.99 25.60 25.08 25.93 29.54 32.32 33.79
26.39 28.33 29.74 29.27 28.64 26.04 28.33 28.38 28.14 22.24 22.16 21.23 21.11 20.30 24.38 27.76 28.56 28.00 28.14 28.44 28.50 28.55 29.42 28.99 27.25 26.53 25.44 23.07 22.63 24.02 25.06 25.96 26.69 24.77 23.48 25.31 25.96 27.11
27.68 24.36 27.64 27.71 27.70 26.23 25.07 24.00 23.20 22.42 21.93 20.44 19.90 20.89 20.62 22.00 26.03 27.06 25.86 26.30 25.43 25.83 29.13 29.32 27.95 27.24 25.71 26.17 25.46 24.32 25.37 24.02 26.36 26.65 26.63 27.24 27.32 27.60
26.04 22.74 20.55 20.47 20.28 21.12 21.78 22.51 22.90 23.21 21.46 20.84 19.10 23.88 24.62 24.72 24.62 25.78 25.19 24.60 23.25 23.04 24.10 27.57 29.71 29.67 28.80 27.60 25.16 25.39 25.49 25.84 27.20 27.20 26.91 26.61 27.78 28.21
22.58 19.58 18.01 18.81 19.31 21.02 21.83 22.03 22.80 24.06 24.26 24.40 24.36 23.13 22.36 22.70 22.75 23.53 23.93 23.05 21.86 22.57 23.28 24.98 26.44 26.45 26.67 27.16 30.14 25.58 26.28 26.32 27.00 27.55 27.47 26.58 26.80 28.97
19.43 17.64 18.18 18.93 19.39 20.22 19.53 19.27 23.32 24.41 25.08 24.23 23.32 22.98 23.39 23.01 22.81 22.12 22.21 21.96 21.42 22.38 23.63 25.51 25.65 24.52 22.05 21.37 26.13 32.89 26.71 26.76 27.30 26.90 27.23 26.28 25.48 27.45
18.62 17.29 17.31 18.87 19.22 18.02 19.38 23.35 23.68 23.86 23.54 23.34 22.95 22.77 22.50 22.39 21.81 21.33 21.82 21.27 21.17 21.68 22.11 24.00 24.73 25.12 23.51 23.00 24.13 27.26 31.67 27.28 26.50 25.53 25.55 27.49 28.71 32.88
18.25 18.03 18.69 18.11 17.67 16.67 20.60 23.61 23.74 23.27 23.24 22.83 22.92 22.52 22.57 22.29 21.28 21.14 21.24 24.39 24.64 22.82 20.74 21.30 23.62 29.30 27.73 27.19 23.81 24.35 27.09 31.55 30.99 27.29 27.46 26.91 27.03 28.04
18.61 18.13 18.35 17.79 16.46 12.30 13.87 21.01 22.76 22.48 22.32 22.09 22.03 22.51 22.89 22.30 21.27 21.08 21.33 20.84 21.00 21.25 21.12 22.59 25.11 25.45 25.06 24.20 23.28 23.96 25.51 28.54 31.66 33.58 33.85 32.85 28.52 25.65
17.71 18.30 17.11 15.85 13.52 12.93 12.72 14.31 15.76 18.73 18.98 20.36 21.16 21.69 21.69 21.03 21.79 21.99 21.92 22.10 22.01 21.56 21.66 21.85 23.87 24.80 24.13 24.39 25.25 25.71 26.81 27.62 28.35 28.36 28.97 33.55 34.20 34.09

GFSNE_sfc_wetblb_057.txt.gz
Wetbulb
57.79 57.71 56.83 54.38 52.51 52.27 50.49 49.33 48.94 44.90 37.51 37.01 37.35 38.16 39.05 41.59 44.12 40.35 40.47 44.98 44.50 44.43 44.90 44.70 45.31 45.95 46.40 46.86 46.60 46.08 45.84 45.47 45.62 46.13 46.65 46.99 47.64 48.34
54.36 54.79 52.06 47.83 47.05 46.54 45.32 44.30 44.55 46.27 41.66 36.01 35.60 36.08 38.57 40.07 41.95 38.71 38.98 41.68 43.48 44.23 44.08 43.88 44.45 45.46 46.03 45.14 44.74 44.46 44.43 44.45 44.73 45.25 45.88 46.27 46.67 47.21
46.78 45.65 42.17 42.56 41.17 42.46 42.43 41.05 41.10 41.68 38.34 34.28 35.36 35.42 35.47 36.66 38.56 37.55 38.33 37.83 38.04 41.39 42.68 43.70 45.00 45.08 43.75 42.92 42.86 42.98 43.16 43.26 43.38 43.95 44.44 44.95 45.48 45.78
41.38 41.33 39.96 40.07 39.37 40.26 40.41 39.65 39.69 38.83 37.56 34.13 32.74 32.10 32.63 34.39 35.53 35.30 36.20 37.37 37.57 39.69 42.42 43.00 42.17 41.74 41.69 41.99 41.92 41.20 41.21 41.60 42.01 42.58 43.11 43.64 44.00 44.44
39.81 39.71 39.52 39.51 38.26 37.50 37.03 35.97 36.11 36.24 35.32 34.44 32.10 33.35 33.62 34.22 33.74 34.74 34.96 35.27 36.67 38.45 39.83 40.33 40.55 40.16 39.89 40.00 40.25 40.49 40.75 40.87 40.92 41.15 41.34 41.47 42.07 42.63
37.53 37.51 37.36 36.93 35.99 34.78 34.52 34.00 34.58 34.34 34.53 34.00 33.31 33.14 33.58 34.06 33.53 32.13 31.33 33.18 32.07 33.80 35.20 36.30 37.43 37.73 38.58 38.71 38.76 38.35 38.44 38.84 39.56 40.14 40.39 40.60 40.79 41.29
35.62 37.02 37.40 38.34 38.69 37.54 35.57 34.88 34.62 33.69 32.97 32.13 31.87 31.94 32.05 31.28 30.62 30.99 28.71 26.92 26.74 27.47 26.85 27.40 28.19 28.33 29.69 34.70 35.48 36.43 36.98 38.18 39.21 39.86 40.34 40.66 40.70 40.72
33.11 33.85 35.36 36.18 38.02 40.13 39.26 38.18 36.65 33.72 32.53 32.35 31.36 29.63 28.58 26.98 26.84 26.80 25.20 24.14 21.89 26.62 25.88 25.61 27.12 27.12 28.15 28.92 35.00 36.87 37.82 38.38 38.78 39.32 39.70 39.99 40.17 40.23
32.38 32.19 32.40 32.73 32.82 32.46 34.64 34.89 34.62 35.62 34.96 30.76 28.23 26.40 25.26 26.88 24.75 24.10 24.93 23.21 22.61 25.79 25.83 24.32 26.36 25.90 27.25 30.65 35.37 36.35 37.20 37.75 38.01 38.46 38.82 39.10 39.14 39.21
29.12 29.80 29.01 28.59 30.44 30.85 29.89 29.41 28.96 28.92 29.72 30.63 27.60 26.79 26.72 27.05 26.85 24.27 21.95 22.62 24.87 25.74 25.82 18.34 24.20 24.66 26.27 26.74 34.17 35.27 35.93 36.70 37.11 37.14 37.28 37.63 37.96 38.26
26.46 27.32 26.94 26.68 33.24 34.17 28.16 26.74 26.39 26.50 32.27 33.88 33.24 33.47 33.55 33.54 32.10 25.17 20.13 17.54 19.08 23.32 25.32 22.91 22.72 23.09 24.57 24.76 26.65 33.19 34.59 34.84 34.98 35.34 35.97 36.30 36.56 37.01
23.63 25.32 32.18 30.37 33.31 33.41 26.77 24.79 23.40 23.49 24.49 25.10 24.72 26.36 27.37 26.17 32.04 26.64 22.60 12.49 13.10 15.58 23.88 17.96 19.45 20.65 18.70 22.96 23.56 26.29 25.93 31.15 32.69 33.06 33.53 33.93 34.43 32.55
24.86 23.76 26.38 31.89 31.76 31.58 31.19 23.88 24.95 26.04 26.07 23.07 22.50 21.66 22.78 23.76 25.13 25.12 25.08 15.51 9.10 14.73 25.50 25.97 22.50 25.06 25.18 24.19 22.41 22.21 23.90 25.00 25.34 27.17 30.76 31.83 32.25 32.84
25.08 24.78 25.34 31.21 30.54 30.13 27.97 28.92 29.40 28.39 22.97 21.87 21.45 21.15 21.54 22.00 22.64 24.99 27.49 28.58 27.72 27.06 25.75 27.63 24.83 24.42 23.12 22.29 22.37 23.07 23.42 26.15 24.63 25.08 24.25 28.57 31.73 32.81
26.12 28.73 30.71 29.89 29.09 26.05 27.43 28.74 28.29 21.56 21.57 20.59 20.33 19.23 19.47 19.06 20.02 20.31 27.98 28.68 28.17 28.45 29.43 28.93 27.29 26.39 25.22 23.32 23.19 23.38 24.35 25.07 25.99 25.64 21.41 22.88 24.07 25.40
27.47 23.68 26.78 27.42 27.56 26.10 24.47 23.58 22.72 21.89 21.32 19.85 19.20 19.87 19.02 20.14 25.43 26.50 25.14 25.74 25.02 25.33 28.71 29.33 28.60 27.55 25.03 25.42 25.50 24.00 25.09 24.05 25.24 26.26 26.18 26.35 26.79 27.05
26.01 21.74 20.33 19.92 20.05 20.76 21.69 22.19 22.54 22.83 20.76 19.98 17.58 20.17 24.00 24.62 24.15 25.22 24.32 23.66 22.00 21.95 22.61 25.90 28.32 28.73 28.50 27.35 24.92 24.72 24.45 24.50 26.01 25.92 25.53 25.55 27.14 28.04
22.80 19.67 17.55 18.26 18.73 20.18 21.18 21.44 21.92 22.65 23.64 24.88 24.37 23.53 22.53 22.51 22.70 23.63 23.74 22.56 21.11 21.30 21.71 23.11 24.55 24.57 25.25 27.21 30.23 25.59 25.96 26.00 26.16 26.15 25.93 24.97 26.32 28.38
19.63 17.14 17.08 17.76 18.22 19.08 18.24 16.70 19.58 24.23 24.66 23.98 23.35 23.30 23.29 23.13 22.83 21.63 20.90 21.12 20.64 20.87 20.90 21.20 21.31 22.30 19.69 18.48 23.76 31.96 25.40 25.27 25.69 26.30 26.81 25.99 25.32 26.92
17.90 16.47 16.33 17.69 17.79 16.77 15.82 14.71 22.50 23.61 23.53 23.25 22.83 22.58 22.45 21.96 21.41 21.14 19.29 18.95 19.48 19.80 19.57 19.95 20.18 21.53 21.24 20.95 21.93 24.50 30.40 25.43 24.53 23.98 24.47 26.54 28.14 31.71
17.42 16.98 17.69 17.12 16.27 15.12 15.31 14.18 14.18 19.53 22.97 23.09 22.53 22.16 21.83 21.75 20.65 20.34 19.95 23.66 24.07 22.20 19.70 19.34 20.88 27.22 25.61 25.81 21.75 21.47 24.73 30.15 29.83 25.97 25.84 25.69 25.85 27.14
17.95 17.41 17.59 16.74 14.89 10.79 10.26 10.00 11.32 14.08 16.64 20.92 18.90 17.94 20.62 21.59 20.52 20.02 20.37 19.77 19.97 20.15 20.10 21.30 22.28 21.28 21.52 21.09 20.02 21.62 23.72 25.87 29.37 31.58 32.49 31.75 27.85 24.85
16.87 17.18 16.18 14.65 11.52 9.72 8.25 9.06 10.51 13.48 14.72 16.59 17.33 17.77 18.01 17.94 19.29 20.53 20.76 21.12 20.80 20.23 20.40 20.33 21.60 22.78 22.38 22.60 22.93 22.44 22.65 23.59 25.15 25.64 27.86 32.83 33.90 33.77

GFSNE_sfc_wetblb_060.txt.gz
Wetbulb
56.09 56.47 56.45 56.68 53.82 53.10 52.08 50.16 48.55 44.10 39.95 38.73 38.51 39.22 40.70 43.78 46.45 45.31 45.71 48.35 48.58 48.42 48.74 48.72 48.26 48.05 47.71 47.42 47.67 48.61 48.80 48.44 47.91 47.60 47.61 47.80 48.06 48.64
51.54 52.49 49.96 47.43 46.10 45.25 44.81 45.17 45.70 44.65 42.09 38.06 36.72 37.18 39.64 41.61 44.74 41.24 42.09 45.88 47.84 47.93 47.08 46.50 46.17 46.27 46.37 46.69 47.52 47.41 47.03 46.58 46.52 46.66 46.88 46.86 47.29 47.69
44.22 43.72 42.32 42.84 42.14 42.43 42.71 42.91 42.99 42.93 40.30 36.15 36.30 36.15 36.42 38.12 39.78 38.71 40.70 39.49 39.96 44.16 45.78 45.69 45.41 45.22 45.72 46.50 45.54 44.58 44.58 44.50 44.80 45.12 45.31 45.75 46.06 46.33
41.10 40.76 39.81 41.03 40.02 40.75 40.77 39.76 40.05 38.83 37.77 35.66 33.59 32.98 33.26 35.58 36.15 36.17 37.46 38.41 37.67 39.50 41.90 42.86 43.97 44.70 43.62 43.08 42.76 42.98 42.75 42.32 42.50 43.01 43.63 44.08 44.54 45.04
38.35 38.34 38.28 38.55 37.24 37.08 36.79 36.17 36.02 36.80 35.99 34.91 32.45 33.53 33.31 34.07 34.08 35.11 35.25 35.63 37.30 39.03 40.63 41.20 41.68 41.87 41.84 41.26 40.82 40.81 40.99 41.44 41.70 41.62 41.83 42.23 42.81 43.29
37.66 37.40 37.03 36.67 35.82 35.02 34.84 34.62 35.42 35.02 35.12 34.23 33.34 33.16 33.67 34.00 33.90 33.18 32.98 34.71 33.60 34.84 36.15 36.56 37.14 37.90 38.73 39.00 39.11 39.18 38.79 38.90 39.80 40.20 40.63 40.92 41.20 41.75
35.66 36.78 38.33 39.74 40.26 38.47 35.99 35.15 34.80 33.88 33.31 32.84 32.34 32.55 32.69 31.91 31.44 32.19 30.61 28.23 27.02 27.35 26.97 27.21 27.68 27.73 28.81 33.77 34.99 36.73 37.29 37.80 38.72 39.78 40.57 41.02 41.21 41.44
33.07 33.27 33.95 35.12 35.23 40.43 40.02 39.08 36.87 33.56 32.53 32.08 30.86 29.74 27.99 26.09 25.76 26.27 23.32 22.33 20.10 26.03 25.32 25.29 26.47 25.57 26.75 27.36 34.15 36.41 37.51 38.52 39.02 39.25 39.79 40.25 40.39 40.41
29.88 28.29 30.53 32.58 32.61 31.90 33.54 33.87 33.78 35.51 35.07 30.03 27.61 26.00 24.69 26.01 21.83 22.16 23.96 21.20 20.96 24.55 25.06 23.00 25.36 25.15 26.71 29.50 34.93 36.17 37.03 37.71 38.24 38.47 38.73 39.01 39.32 39.52
23.92 25.65 25.52 25.68 28.42 28.81 27.58 27.19 26.89 27.08 28.12 29.38 26.47 25.96 26.06 26.43 26.46 23.72 21.87 22.33 24.40 25.18 25.10 17.37 23.57 24.20 25.58 25.98 33.17 34.86 35.97 36.73 36.93 36.88 36.90 37.14 37.53 38.07
25.58 26.07 26.54 26.50 33.51 34.30 27.19 25.70 25.45 25.72 30.60 33.33 32.64 33.14 33.34 33.69 31.07 24.88 20.17 16.86 18.50 22.68 24.78 22.66 21.99 22.62 24.06 24.20 26.28 33.06 34.13 34.31 34.91 35.10 35.52 35.57 35.82 36.25
23.48 24.62 31.82 30.40 33.23 32.95 26.32 24.33 23.33 23.58 24.51 25.10 24.25 25.36 25.84 25.19 30.78 26.01 21.80 11.64 12.54 14.51 23.26 17.64 18.92 19.94 17.01 22.61 23.43 25.59 25.65 31.19 33.02 33.69 34.03 34.21 34.41 30.48
24.96 24.50 26.25 32.50 32.42 31.80 31.05 23.67 24.35 25.78 25.71 22.66 21.89 21.02 22.46 23.36 25.37 25.24 24.54 13.72 7.34 12.19 24.05 24.66 22.25 25.28 24.24 20.60 22.28 22.54 22.59 25.25 25.83 27.49 31.49 33.06 33.37 32.54
25.04 24.50 24.91 31.13 30.66 30.20 27.55 29.69 29.48 27.60 22.36 21.57 21.06 20.45 20.87 21.10 22.06 26.89 27.68 26.14 27.24 26.38 28.83 27.52 24.51 24.52 23.23 22.59 22.26 22.08 21.25 23.18 23.83 24.84 24.26 28.71 32.21 33.63
26.16 28.45 30.42 30.33 30.01 26.32 27.91 29.04 27.32 21.46 21.23 19.83 19.52 18.32 18.41 16.85 16.89 17.89 22.97 28.53 28.05 28.44 29.37 28.51 26.84 26.39 25.40 23.39 22.91 23.59 24.26 19.26 22.43 23.74 23.06 22.96 23.85 24.91
28.05 23.15 26.18 26.53 26.88 25.68 23.81 23.17 22.50 21.70 20.78 19.19 18.43 19.02 18.27 19.27 24.99 26.12 24.36 24.66 23.35 17.49 22.93 28.24 28.13 27.34 25.03 25.44 25.15 23.37 23.89 22.79 19.18 22.14 21.92 25.04 25.97 26.44
26.98 21.97 19.72 19.38 19.75 20.38 21.32 21.98 22.37 22.84 20.34 19.41 17.05 20.00 23.98 23.93 23.65 24.66 24.08 23.27 20.50 14.52 15.84 18.20 23.97 25.99 26.83 26.00 23.85 24.35 24.43 24.37 25.32 24.94 24.13 24.38 26.69 27.70
23.56 19.47 17.17 17.69 18.08 19.39 20.22 20.67 21.00 21.85 22.45 24.78 24.04 23.89 23.02 22.67 22.64 23.55 23.80 20.97 19.47 17.91 17.64 14.75 13.04 16.17 21.05 23.71 28.46 24.29 25.27 25.24 26.64 26.09 25.26 24.56 25.19 27.88
18.96 16.81 16.32 16.77 17.26 17.92 17.09 15.19 13.62 20.12 24.36 23.69 23.24 22.86 22.82 22.44 22.39 20.02 18.81 16.99 18.73 18.44 18.48 17.02 9.24 15.28 16.42 15.42 21.76 29.54 23.16 23.86 23.36 23.48 25.06 25.34 24.57 25.99
17.55 16.02 15.80 16.81 16.94 15.87 14.50 11.58 12.31 15.85 18.70 22.23 22.68 22.60 22.33 21.91 21.12 20.05 18.29 15.38 17.60 17.83 17.70 18.12 15.83 17.78 17.76 17.26 18.86 22.76 28.65 23.68 23.38 22.93 23.17 24.71 26.31 30.51
17.82 17.00 17.29 16.66 15.92 14.58 13.96 10.82 7.37 9.15 12.09 12.82 14.16 19.24 20.79 17.25 18.63 20.02 20.17 22.71 23.08 21.66 19.12 18.63 20.33 26.27 24.29 24.11 20.29 20.14 23.34 28.31 27.60 23.99 23.94 24.43 24.03 25.37
18.02 17.10 17.21 16.50 14.85 11.32 9.52 7.54 6.10 8.49 9.42 11.40 13.26 11.61 13.08 15.17 17.76 18.01 18.41 17.98 18.65 19.35 19.31 20.76 22.35 22.01 19.11 19.45 18.10 18.67 20.55 23.73 27.45 29.33 30.22 29.51 25.18 22.43
16.79 16.81 15.80 14.47 11.91 9.51 6.68 6.50 7.12 9.29 9.30 10.20 11.98 14.02 14.39 15.05 16.79 17.69 18.54 19.37 19.80 19.55 19.91 19.50 20.81 22.07 21.45 20.64 21.65 21.24 21.24 21.71 22.87 22.72 24.53 29.99 31.33 31.93

GFSNE_sfc_wetblb_066.txt.gz
Wetbulb
49.98 50.64 51.42 49.23 48.35 48.79 49.64 50.70 49.70 45.85 43.41 40.10 39.73 36.88 38.03 41.28 43.81 44.17 45.40 48.83 51.11 54.45 54.89 54.44 54.25 54.33 54.08 53.69 53.04 52.16 50.87 50.42 50.35 50.57 51.32 51.75 51.58 51.53
46.65 45.54 44.63 44.84 44.24 42.55 44.21 45.56 46.05 45.39 43.33 40.16 38.38 37.73 38.78 42.13 44.18 43.29 44.91 47.24 49.12 52.31 53.01 52.70 51.18 50.47 50.24 49.69 49.15 49.08 49.02 49.27 49.84 51.31 50.74 50.59 50.59 50.44
42.92 42.49 41.68 42.41 41.32 41.99 42.55 42.80 42.28 42.42 40.56 38.91 36.21 36.00 36.59 38.30 38.67 40.55 41.43 41.36 41.78 46.72 47.97 48.67 48.62 47.97 47.45 47.54 47.56 47.53 47.99 47.28 46.68 47.21 48.06 48.67 48.89 48.70
37.29 37.60 39.00 40.27 39.12 39.46 39.65 39.17 39.07 38.85 38.35 37.33 34.13 33.39 33.51 36.18 37.24 37.69 38.90 39.56 39.10 42.04 43.75 44.10 44.46 44.62 45.11 45.73 45.93 46.02 45.26 45.35 45.23 45.56 45.31 45.54 45.89 45.95
38.12 37.68 37.41 37.08 35.77 36.71 36.49 35.92 36.02 35.58 36.16 35.57 33.52 34.52 33.20 34.90 35.03 35.91 36.59 36.53 38.12 39.97 41.23 42.14 43.23 44.11 44.18 44.30 44.40 44.43 43.75 42.86 42.50 42.61 42.83 43.35 43.80 44.22
37.60 38.52 38.18 36.72 35.35 34.39 32.90 30.75 31.94 31.63 34.81 34.47 33.81 33.75 33.99 34.55 35.04 34.22 33.81 35.88 35.45 36.82 37.47 38.51 37.83 38.02 38.57 39.25 39.89 39.94 39.93 40.54 41.17 41.27 41.35 41.38 41.56 42.06
34.13 34.87 35.80 38.60 40.74 39.27 34.29 32.03 31.09 30.30 30.29 32.70 32.38 31.98 31.40 31.11 31.08 31.54 30.77 29.32 29.36 29.03 28.57 28.29 27.99 27.91 28.82 32.72 33.69 36.13 37.63 38.65 39.25 39.78 39.94 40.36 40.81 41.49
26.53 27.08 30.74 32.05 32.64 36.64 36.40 36.51 35.07 28.81 26.85 23.34 20.93 24.47 23.69 23.48 24.44 24.72 21.36 21.03 19.82 25.06 24.48 25.16 26.44 26.46 26.82 26.73 32.71 35.65 36.58 37.18 37.86 38.61 39.52 40.63 40.61 40.67
20.32 22.61 27.46 29.81 29.23 27.25 31.55 32.82 32.31 34.68 33.30 26.24 24.20 23.22 22.97 24.48 19.87 19.86 22.34 19.70 19.83 23.80 24.40 22.25 24.17 23.75 25.69 27.88 33.73 35.74 36.87 37.63 38.46 38.96 39.28 39.58 39.80 39.83
21.36 24.82 25.34 26.63 29.38 27.81 26.58 26.02 26.08 25.98 28.10 28.14 25.50 25.18 25.13 25.55 25.44 21.95 20.08 21.36 23.94 24.77 24.29 15.89 22.45 23.38 24.74 25.32 31.96 34.13 35.69 36.98 37.71 38.34 38.72 38.25 38.03 38.13
24.84 24.96 27.05 27.06 33.60 33.48 26.88 25.20 23.84 24.99 29.51 32.40 32.23 32.64 32.86 32.53 31.01 24.86 20.44 17.36 18.26 21.36 23.65 21.11 20.59 21.37 23.42 23.58 25.67 32.68 35.23 35.00 35.04 35.50 36.37 36.72 36.80 36.91
23.79 25.37 31.44 30.39 33.39 33.19 25.69 23.88 22.06 21.95 24.00 24.56 23.76 24.08 24.70 25.10 30.25 25.87 20.46 10.88 11.72 14.53 21.84 16.98 18.50 19.09 16.69 21.67 22.92 24.94 25.51 30.82 32.52 33.23 34.45 34.80 35.19 31.82
25.50 24.48 26.14 32.34 32.79 32.25 30.92 23.36 23.87 25.02 25.13 21.74 20.78 20.82 22.57 23.57 24.94 24.27 23.27 12.33 5.74 9.21 22.92 23.92 19.90 25.23 23.42 20.29 21.34 22.09 22.39 24.95 25.41 26.98 31.34 32.64 33.42 33.17
24.73 24.65 25.61 31.03 30.67 31.02 27.64 30.02 30.62 26.08 21.26 20.58 20.68 19.39 19.76 19.80 20.40 21.53 24.04 23.00 25.57 24.96 27.45 26.31 23.47 21.46 22.51 22.36 22.30 20.87 18.90 21.84 21.61 24.42 23.19 28.02 31.75 32.83
26.46 28.39 29.76 28.72 28.16 25.43 28.15 29.01 26.56 20.91 20.52 18.67 17.98 16.98 17.35 15.38 15.35 16.15 22.02 25.92 27.04 27.68 29.18 27.57 26.56 25.33 24.21 21.25 20.94 21.39 24.17 19.15 23.22 22.01 20.86 21.92 22.27 22.73
28.26 23.16 26.77 25.74 26.03 24.87 23.25 23.00 22.40 21.69 20.23 17.91 17.23 17.71 16.85 16.73 24.60 25.64 23.71 23.71 22.12 14.65 19.01 13.27 12.66 18.39 22.82 23.16 23.52 22.41 23.28 21.72 16.48 16.84 21.45 24.67 25.95 26.12
25.24 22.29 20.26 18.73 18.50 18.97 19.75 20.59 21.17 21.65 19.25 17.66 15.83 18.46 24.22 24.61 24.28 24.66 23.70 22.95 21.06 18.73 14.02 15.16 19.92 19.07 19.04 19.47 19.65 20.89 21.08 21.23 22.50 23.15 24.58 24.74 27.08 27.92
23.14 19.33 17.18 16.69 16.81 17.54 18.03 18.40 18.91 19.96 19.13 18.21 17.64 20.11 22.56 22.66 22.30 22.88 23.40 22.27 20.88 17.44 16.82 11.89 7.93 11.79 14.11 19.23 25.05 19.88 20.72 21.25 23.00 22.89 23.15 23.68 24.45 26.43
21.14 17.10 16.11 16.11 16.17 16.49 15.97 14.31 12.20 16.02 10.52 8.61 9.86 11.81 12.89 13.58 21.00 20.72 20.99 20.94 18.21 14.03 15.68 10.48 3.69 9.75 12.87 12.99 18.91 28.57 21.26 22.39 21.36 21.63 23.02 22.67 21.89 24.01
18.53 17.05 16.46 16.88 16.47 15.67 14.52 11.12 9.98 10.43 7.96 7.40 5.25 4.69 7.02 10.46 15.21 15.16 12.20 10.60 15.76 16.18 15.69 11.71 9.22 13.54 14.61 15.44 16.29 20.22 27.26 22.42 21.53 20.17 20.44 22.57 24.11 28.48
17.76 17.40 17.73 17.11 16.19 14.79 14.13 11.23 7.75 6.32 5.57 1.65 1.98 1.54 6.52 2.95 12.14 11.77 13.88 20.39 20.46 17.89 16.45 16.51 18.29 25.03 23.07 22.12 15.45 18.17 21.83 27.10 26.61 22.72 21.20 20.94 21.51 22.57
18.74 17.31 17.45 16.74 15.24 12.23 10.02 7.67 4.08 6.44 5.33 5.00 5.58 4.92 5.91 5.25 8.78 11.42 13.84 14.17 15.52 16.28 16.24 17.36 17.96 17.67 18.97 18.58 16.71 17.19 19.01 22.04 25.91 28.02 28.70 27.66 22.89 19.30
17.63 17.34 16.07 14.88 12.57 9.84 6.81 5.88 5.87 7.63 6.93 6.13 5.64 5.96 6.04 8.87 12.74 14.84 15.82 16.43 16.53 16.10 16.12 16.01 17.26 18.51 18.22 18.19 19.99 19.60 19.41 20.04 21.25 20.77 22.47 27.86 29.07 30.27

GFSNE_sfc_wetblb_072.txt.gz
Wetbulb
52.07 52.25 51.30 50.50 51.23 52.14 52.67 53.73 51.53 47.58 48.55 50.30 48.73 46.68 46.46 48.05 45.95 47.64 47.35 48.19 49.74 52.16 52.00 52.75 52.77 53.53 54.98 57.20 57.69 57.00 55.30 53.85 53.17 52.62 52.23 52.19 52.49 53.46
50.29 50.18 50.64 50.83 50.37 50.62 50.88 50.67 50.45 49.16 47.23 47.44 43.37 42.52 43.36 45.57 44.97 45.59 45.55 45.00 46.67 49.63 51.99 51.03 50.81 50.99 51.20 52.19 53.70 53.57 52.42 51.67 51.42 50.95 51.11 51.44 51.56 51.37
47.79 47.49 46.39 47.63 47.60 47.68 48.29 48.17 47.76 46.70 46.54 41.63 41.56 41.00 42.30 44.39 44.12 45.10 43.86 43.51 43.96 46.71 47.85 48.58 49.18 49.14 49.20 49.25 49.50 49.57 49.42 49.87 49.32 48.81 48.83 49.06 49.40 49.83
45.21 45.21 44.22 44.45 44.27 44.68 44.85 43.25 42.51 42.24 43.62 43.45 40.54 40.59 40.13 42.18 42.80 42.58 42.59 42.78 42.72 43.39 44.64 45.65 46.57 46.36 46.69 47.33 47.29 47.03 47.36 47.30 47.32 47.31 47.18 48.08 48.61 48.49
43.06 42.84 41.85 42.29 41.40 42.01 41.69 42.09 42.88 43.39 44.37 43.69 40.67 41.62 40.87 40.94 40.76 41.43 40.92 41.84 41.66 39.27 40.89 41.09 42.34 43.15 44.39 44.82 44.90 44.94 44.81 44.91 45.28 45.46 45.32 44.65 45.16 46.01
41.07 40.93 40.33 40.20 40.42 40.32 40.01 39.84 40.57 42.33 42.52 42.50 40.18 38.50 38.85 38.86 38.33 38.03 40.50 40.77 38.55 38.41 37.62 36.96 37.66 37.85 39.32 39.95 39.55 39.68 40.40 40.94 41.91 42.79 43.10 43.33 42.69 42.89
38.66 38.71 39.02 38.98 38.98 39.20 39.80 38.85 38.45 38.56 39.25 39.51 39.09 38.80 37.48 36.99 35.13 36.36 35.91 36.37 38.06 36.40 37.01 38.16 37.76 38.51 38.69 37.03 35.66 35.20 36.13 37.87 39.71 40.89 41.82 42.13 41.95 41.53
35.05 35.75 36.10 34.99 35.50 36.45 36.01 36.22 36.51 35.31 34.24 34.98 34.89 33.60 33.58 33.96 34.63 33.13 32.82 32.06 32.24 36.24 34.06 34.71 36.20 35.22 36.37 36.74 34.78 34.86 35.98 37.01 37.75 38.35 39.21 39.85 40.28 40.56
33.84 34.72 34.63 34.98 34.43 33.90 33.15 33.38 34.59 34.91 33.98 34.34 32.72 32.02 31.86 32.32 32.01 31.61 31.75 31.47 31.44 33.78 32.16 31.60 34.32 32.81 35.68 35.21 33.91 34.91 35.71 36.83 37.72 38.17 38.57 39.08 39.74 40.66
33.50 33.96 34.84 34.94 35.43 33.90 33.02 31.83 32.12 33.62 34.17 33.95 34.16 34.05 34.24 34.78 34.13 33.12 32.42 31.73 32.81 33.15 32.58 29.12 33.29 32.32 34.94 35.74 33.00 33.53 34.97 36.32 37.44 38.34 39.14 39.43 39.35 39.60
32.93 34.26 34.34 34.28 34.26 33.08 32.24 30.32 30.47 30.86 31.70 31.84 31.59 31.46 31.80 31.71 33.07 33.31 31.20 29.70 29.08 30.30 32.26 29.85 31.79 30.73 32.70 32.96 34.39 33.90 35.08 35.32 36.11 36.91 38.11 38.63 38.88 38.42
32.00 32.14 32.21 33.99 33.46 32.91 32.41 30.92 28.84 30.54 30.97 31.13 31.05 30.43 30.08 30.94 30.60 32.20 31.59 28.88 28.92 29.35 31.02 28.96 29.28 29.60 29.23 33.22 33.24 34.01 34.53 33.71 33.79 34.60 35.37 35.91 36.63 36.70
30.95 30.95 31.90 32.14 32.01 32.63 31.75 31.29 30.30 32.01 30.46 29.66 29.22 30.35 30.80 31.31 31.94 32.05 31.35 30.97 28.81 28.65 30.87 29.57 27.70 27.40 27.82 28.61 31.30 33.08 33.36 33.49 33.69 34.07 34.16 34.70 35.04 35.12
30.04 31.24 32.32 30.93 30.24 29.87 30.26 30.17 30.87 29.35 29.52 28.33 28.18 28.67 29.06 29.87 30.60 30.65 30.07 30.45 30.95 29.48 30.39 30.78 27.45 27.33 26.13 24.94 26.14 31.82 32.61 33.12 33.01 32.31 33.37 33.74 34.05 34.32
31.41 31.19 31.09 29.65 28.47 28.29 28.20 28.93 28.26 28.51 27.79 26.95 27.44 28.42 29.39 30.23 29.16 29.49 29.86 30.33 30.31 30.32 31.09 30.71 28.76 28.32 26.97 24.94 24.87 26.37 27.36 30.90 32.50 30.33 31.08 32.44 32.44 33.09
30.78 31.90 30.69 29.13 27.55 27.53 27.00 27.32 27.85 28.33 27.77 27.90 27.99 28.91 29.48 28.83 28.39 28.58 27.11 26.83 26.01 26.99 31.20 29.69 28.66 27.74 25.87 26.42 26.31 25.23 27.62 26.23 31.39 31.70 31.87 31.47 31.80 32.26
31.30 30.58 29.32 27.78 26.86 26.70 26.50 26.49 26.87 26.86 26.37 27.56 27.29 27.36 27.53 27.84 27.63 28.62 27.16 26.01 24.44 24.77 25.92 28.18 28.69 28.18 27.70 26.71 24.91 26.67 27.30 28.83 31.47 31.51 29.23 28.30 30.76 32.08
31.25 29.02 28.47 27.74 26.75 26.47 25.48 25.50 25.88 25.45 26.24 26.45 26.49 26.65 26.42 26.53 26.33 27.04 27.15 25.56 24.83 25.59 25.69 27.03 26.34 24.95 25.78 27.99 28.55 26.02 27.78 28.65 30.70 30.50 28.77 26.01 26.29 30.32
29.20 29.18 28.18 28.04 27.41 26.69 26.18 25.91 25.50 26.04 26.11 25.18 25.15 25.15 25.12 25.08 24.81 24.82 25.33 24.98 24.38 25.00 25.85 26.50 25.03 22.82 20.20 20.26 27.66 30.44 27.05 28.11 28.87 28.40 29.69 29.06 28.37 30.25
29.86 28.91 28.47 27.87 27.00 26.51 26.74 26.49 26.32 25.89 25.34 24.80 24.60 24.34 23.83 23.43 23.05 23.22 23.94 23.02 23.07 23.56 23.53 24.82 24.33 23.13 20.98 21.49 23.01 27.12 29.16 27.37 27.27 27.21 28.21 30.13 31.04 31.90
29.36 28.35 27.72 27.17 26.70 26.65 26.67 26.58 25.92 25.40 25.37 24.36 23.83 23.07 23.01 22.80 22.11 22.41 22.48 22.88 23.26 23.18 22.84 24.18 26.96 29.06 27.68 26.15 21.66 22.49 27.46 29.23 28.23 26.71 27.20 26.06 24.27 25.46
29.82 28.44 27.82 27.24 27.03 26.70 26.32 26.11 25.39 24.60 24.06 23.94 23.52 23.35 23.11 22.55 21.36 21.04 21.54 21.68 22.59 23.17 23.72 25.34 26.50 25.36 23.29 20.75 20.13 21.96 24.28 27.62 29.77 29.73 29.62 28.42 25.59 22.93
28.51 27.76 27.44 27.45 27.56 26.59 25.88 25.28 24.17 23.92 23.86 23.29 22.95 22.82 22.13 21.15 21.77 21.96 22.03 22.51 22.35 22.05 22.39 22.41 24.07 24.78 22.99 22.16 21.89 21.32 22.38 23.75 26.06 26.52 27.95 30.59 30.26 30.16

GFSNE_sfc_wetblb_075.txt.gz
Wetbulb
53.07 52.60 51.43 51.06 51.17 51.83 52.70 53.81 52.64 48.35 48.48 48.37 48.37 46.69 46.33 47.50 45.33 46.56 46.23 47.66 48.99 51.76 52.67 52.22 52.30 52.58 53.77 54.68 57.90 58.22 57.05 58.84 57.96 57.36 56.09 55.07 54.23 53.47
51.20 50.97 50.76 50.70 50.75 51.06 51.18 51.69 50.90 49.99 47.05 46.97 44.11 42.98 44.06 45.95 45.21 45.28 44.83 45.14 46.68 49.15 49.95 50.80 50.63 50.09 50.97 53.71 54.80 54.68 54.42 54.62 54.85 54.65 54.41 53.93 53.46 52.78
48.85 48.10 47.07 48.67 48.61 48.35 48.43 48.44 47.63 47.39 45.25 42.27 42.62 41.70 43.03 43.75 44.28 44.66 44.95 44.18 44.36 46.26 47.76 48.22 48.53 49.10 49.41 49.88 50.25 51.14 52.48 52.84 53.07 53.10 52.65 51.63 51.07 50.92
46.17 46.25 45.10 45.78 45.45 45.80 45.54 44.13 43.76 43.62 44.09 44.07 41.47 41.54 40.35 41.82 42.39 42.07 42.43 43.08 43.05 42.44 44.08 44.73 45.40 46.92 47.30 47.59 47.80 48.27 48.34 48.34 48.37 48.52 48.63 48.76 49.36 49.95
44.15 43.39 42.79 43.37 42.57 42.47 42.38 42.60 43.29 43.63 43.78 42.50 40.31 41.18 40.62 40.44 40.08 41.21 40.78 41.13 41.44 39.49 40.29 41.07 42.32 43.56 44.45 45.29 45.45 45.60 45.56 45.72 46.00 46.15 46.28 46.15 45.80 45.89
41.91 41.81 41.29 40.88 40.68 41.13 40.32 40.07 40.60 41.77 42.14 41.74 39.27 38.11 38.51 39.24 38.56 37.06 38.36 39.16 37.24 38.52 38.36 37.31 37.86 38.23 39.79 40.01 40.00 39.96 40.84 41.86 42.80 43.61 43.49 43.24 43.09 43.14
39.20 38.61 38.62 38.58 38.72 38.17 38.73 37.76 37.50 37.40 38.08 38.77 38.11 37.20 35.61 34.51 32.70 34.44 32.55 33.47 35.22 34.16 33.52 34.99 34.38 35.34 36.08 37.32 36.95 36.93 37.44 38.18 39.42 40.85 41.80 42.34 42.34 42.11
36.19 36.28 35.90 35.48 35.86 36.38 36.20 36.82 36.21 34.15 33.32 33.38 33.96 30.94 31.36 31.24 32.22 30.67 30.69 29.00 29.44 33.19 30.26 30.57 32.89 31.35 32.66 32.72 35.62 35.82 36.38 36.76 37.56 38.33 39.09 40.09 40.67 40.90
35.03 34.91 34.46 34.80 34.84 33.94 33.91 34.32 35.19 35.22 34.48 33.20 30.87 30.29 29.94 31.01 30.67 30.47 29.96 29.38 28.54 30.62 29.18 27.55 30.68 29.13 31.89 34.09 35.04 35.52 36.32 36.71 37.21 37.87 38.20 38.50 39.08 39.81
33.91 34.41 34.71 34.96 34.54 33.91 32.55 31.26 31.14 32.64 33.59 33.76 32.72 32.42 32.33 32.92 32.17 31.40 30.24 29.33 30.42 30.18 29.78 26.12 30.21 28.94 31.33 31.99 34.58 35.10 35.39 35.99 37.01 37.84 38.61 39.14 39.46 39.68
33.00 34.02 34.05 33.84 34.41 33.64 32.20 30.04 29.50 29.80 32.14 32.20 31.82 31.45 31.72 31.97 32.34 30.72 29.42 27.97 27.13 27.07 29.32 27.03 28.91 27.85 29.65 29.57 31.02 33.74 34.79 35.33 36.10 36.85 37.95 38.36 38.78 39.08
31.20 31.62 32.85 33.51 33.67 33.69 31.80 30.12 27.77 29.04 29.54 29.81 29.33 29.56 29.79 29.90 31.01 29.37 29.17 25.39 26.67 27.16 28.21 26.75 27.46 26.56 24.58 29.56 29.78 30.59 30.72 34.57 33.70 34.99 35.70 36.41 36.95 35.84
29.61 29.57 30.46 32.05 32.12 32.49 32.59 30.27 28.90 30.89 30.09 28.12 27.19 27.53 28.09 28.67 29.28 29.47 29.22 29.06 27.26 27.28 29.36 27.61 27.42 26.64 26.77 26.10 26.89 28.91 29.63 30.00 30.01 31.00 34.82 35.14 36.01 35.68
29.09 29.48 30.69 31.22 30.49 30.25 29.94 30.41 31.23 30.19 27.95 26.53 26.30 26.62 27.14 28.07 28.78 29.11 28.66 28.64 29.62 28.94 29.93 30.09 26.88 27.01 25.75 24.67 23.64 27.34 27.77 28.25 27.69 29.05 29.78 32.86 34.75 35.58
30.51 31.04 31.65 30.62 29.56 29.02 28.77 29.44 29.53 27.17 26.19 25.55 26.13 27.20 28.13 28.22 26.54 27.54 30.37 30.04 29.67 29.44 29.48 28.97 27.53 27.12 26.77 24.59 23.84 24.49 25.66 27.01 29.08 28.01 29.91 29.10 27.54 28.78
31.82 30.63 31.39 30.42 29.59 28.53 27.03 27.13 26.50 26.52 26.07 26.13 26.64 27.40 27.86 26.86 26.50 27.27 26.23 26.72 25.73 26.01 30.33 26.77 22.55 23.47 24.45 24.71 24.98 24.15 26.12 24.36 25.67 28.80 29.56 29.71 30.21 30.19
31.17 29.35 28.45 27.72 26.01 25.92 25.69 25.53 25.57 25.73 25.10 25.82 26.01 25.99 26.66 26.67 26.16 26.22 24.13 22.84 23.42 23.78 24.75 28.43 27.41 27.86 26.03 23.15 21.49 22.77 23.34 24.56 26.20 26.42 29.52 28.27 28.78 28.46
29.85 28.09 27.62 27.38 26.21 25.67 24.99 24.55 24.69 25.36 24.99 25.97 25.51 25.45 24.58 24.27 23.87 24.15 23.66 21.81 20.55 21.84 21.17 22.59 24.71 21.29 22.20 24.53 28.17 22.28 23.24 24.03 25.12 28.74 28.72 26.28 26.05 27.97
29.36 28.53 27.57 27.53 26.86 26.18 25.54 25.36 24.93 25.75 24.18 24.41 23.74 23.32 23.13 22.55 23.02 21.46 21.72 22.09 21.66 21.76 21.36 21.58 20.64 22.06 19.22 17.30 23.17 31.28 23.43 22.43 22.77 24.71 25.64 25.82 25.20 26.88
28.88 28.15 28.37 28.26 27.22 26.23 25.81 25.82 25.86 25.39 24.58 23.86 23.00 22.27 21.01 20.70 19.84 20.44 21.29 20.06 20.90 20.18 19.70 19.24 22.16 23.33 20.97 19.50 19.80 23.69 30.20 23.17 23.06 22.90 23.33 25.82 27.81 31.69
28.50 28.56 28.81 27.82 26.72 26.12 25.88 26.09 25.51 25.32 24.57 23.04 22.58 21.09 20.80 20.26 20.06 20.52 20.80 23.82 23.35 20.92 21.06 22.39 25.40 29.75 27.33 25.69 21.78 21.19 23.75 28.86 27.34 22.90 21.25 23.30 23.00 23.58
29.18 28.66 28.86 28.25 27.20 26.83 26.74 26.26 26.00 25.52 24.11 22.69 22.60 22.44 21.99 21.71 20.43 19.59 20.08 19.45 21.23 22.56 22.77 24.43 25.80 25.48 24.24 21.70 19.42 20.37 21.06 23.88 27.58 29.49 30.53 29.47 24.69 20.84
30.49 29.39 29.11 28.33 27.98 27.69 27.31 26.24 25.59 25.36 24.70 23.65 22.79 22.27 21.60 20.68 21.13 21.21 21.47 21.92 22.26 22.09 22.32 21.93 23.37 24.34 23.36 22.88 22.49 21.82 22.29 22.05 22.83 22.88 24.84 30.17 30.94 31.31

GFSNE_sfc_wetblb_081.txt.gz
Wetbulb
50.13 51.73 51.30 50.86 50.90 51.25 50.57 52.03 50.96 47.35 47.44 43.49 42.24 42.05 42.04 43.55 44.68 44.97 44.11 47.54 49.32 50.47 50.52 50.52 50.56 50.90 52.22 53.93 55.28 55.62 57.52 58.36 58.79 60.70 60.18 59.75 59.72 60.06
47.94 49.20 48.96 48.51 48.26 48.61 48.37 48.50 47.73 47.93 45.12 42.73 41.19 40.88 43.05 44.06 44.24 43.97 42.78 44.27 46.58 47.80 48.08 48.83 49.40 50.00 49.84 50.66 52.29 53.77 55.32 56.91 58.44 59.26 59.89 59.64 59.29 58.44
47.19 46.40 45.40 46.05 45.96 44.04 44.00 45.37 45.23 45.67 44.18 40.94 41.24 40.75 39.49 38.47 41.24 42.73 42.60 39.29 40.56 44.17 45.64 47.07 47.63 48.54 48.51 48.14 49.02 50.53 51.58 53.65 55.37 56.61 58.20 57.89 56.67 55.11
43.53 44.24 43.70 43.93 42.02 42.81 42.41 41.57 41.29 39.10 43.09 41.04 40.06 38.61 38.88 40.09 40.61 38.27 39.72 40.22 36.10 41.11 42.42 43.19 44.71 46.02 46.54 46.68 46.83 47.21 48.23 49.26 50.33 51.27 52.32 53.12 53.24 52.48
39.85 40.80 39.93 38.45 36.85 36.66 37.07 38.81 38.43 41.02 40.49 40.55 37.96 39.70 39.40 37.12 34.50 35.07 35.91 34.40 36.39 39.28 39.68 40.58 41.30 42.36 43.06 43.58 43.34 43.76 44.73 46.26 47.09 47.58 48.14 48.81 48.91 48.83
38.26 37.03 36.54 36.37 36.64 35.28 34.65 33.91 35.28 36.13 36.24 39.17 38.07 37.18 35.94 33.93 32.45 28.79 28.85 30.05 29.47 33.16 34.77 37.22 38.65 39.38 40.14 40.13 39.94 39.59 40.50 41.91 43.83 45.28 45.08 44.67 44.54 44.99
36.99 36.61 37.48 38.49 39.49 37.96 33.92 32.06 32.29 31.66 31.28 29.86 30.02 30.35 27.82 27.26 26.59 27.07 25.82 25.82 26.86 26.55 26.48 26.71 27.91 27.57 31.31 35.08 36.03 37.47 38.00 38.66 39.76 40.81 42.17 42.99 42.79 42.71
32.30 32.46 33.22 34.99 35.76 37.61 37.86 37.40 34.12 29.77 27.67 26.02 23.29 25.03 24.75 25.12 25.99 26.16 22.98 24.11 21.71 26.75 24.53 25.00 25.93 25.89 27.16 28.03 37.04 37.18 36.88 37.33 37.12 37.84 38.81 39.57 40.64 41.64
29.78 30.41 31.67 33.49 32.52 31.15 35.04 35.65 36.05 36.54 34.27 28.39 25.73 24.83 25.25 26.68 25.97 25.09 24.45 23.14 22.47 25.65 24.60 22.70 26.10 25.92 27.39 30.71 36.35 37.16 36.98 36.58 37.40 37.54 37.83 38.08 38.34 38.77
31.04 31.83 31.89 31.52 32.10 30.83 28.95 27.83 28.63 29.07 30.06 30.55 27.97 27.44 27.86 27.84 27.59 26.79 24.41 24.81 25.65 25.98 25.24 19.77 24.80 25.56 26.64 27.42 35.50 36.11 36.47 37.11 37.68 37.87 37.85 38.28 38.66 38.90
30.45 31.16 31.86 31.81 35.08 34.57 29.56 27.26 25.72 27.26 33.03 33.60 32.46 32.21 31.94 32.01 30.92 26.21 23.48 21.17 21.19 23.63 25.41 23.88 23.52 22.69 24.92 26.55 28.14 35.35 35.70 35.97 35.50 35.91 36.57 37.39 38.28 38.45
29.29 30.56 35.12 32.68 34.88 34.46 28.64 25.46 24.29 25.04 26.33 25.98 25.32 28.15 28.40 28.67 31.72 26.12 24.44 14.88 16.84 18.56 24.54 19.24 20.85 20.68 17.41 24.12 25.30 26.17 26.68 34.15 35.00 35.49 35.64 36.31 36.34 31.95
27.00 26.65 28.47 33.92 33.48 33.33 32.89 25.77 26.45 27.80 28.71 24.96 23.46 23.02 24.09 25.48 26.17 26.53 26.23 17.68 12.39 14.18 28.97 19.87 10.17 16.90 15.62 18.66 22.42 23.46 24.22 25.34 26.06 27.49 32.38 33.60 34.75 34.52
26.49 26.34 27.68 33.70 32.52 31.96 30.07 31.40 31.89 30.42 25.01 23.60 23.48 23.06 23.80 24.24 24.55 25.64 26.55 24.81 23.85 20.83 26.60 27.97 23.93 18.38 21.47 20.22 16.90 21.98 20.61 22.91 20.94 23.62 23.72 29.94 32.69 33.04
27.87 29.09 32.61 33.42 32.07 30.19 31.20 30.95 31.36 25.53 24.19 23.06 23.25 23.54 24.49 23.98 21.78 21.01 22.09 22.34 20.13 26.71 29.77 28.27 26.47 25.32 24.25 22.81 18.10 22.73 22.90 21.32 24.39 17.16 20.20 22.18 22.92 23.56
32.54 29.59 31.36 31.49 31.01 28.35 28.33 27.99 25.55 24.08 23.55 23.49 24.66 25.30 24.76 21.26 20.95 17.63 13.88 13.05 12.61 15.45 21.95 17.82 27.43 25.07 12.98 18.66 22.36 21.24 18.74 19.38 16.27 20.05 22.92 22.99 24.52 26.25
29.72 26.91 26.45 26.45 25.86 24.89 24.00 23.83 23.70 24.10 23.80 23.99 24.41 24.38 25.04 23.19 21.44 15.34 12.51 9.06 11.58 9.64 13.61 18.27 22.56 20.55 18.02 15.48 16.22 22.21 21.34 18.48 19.10 20.34 18.92 21.61 23.74 26.43
30.35 25.94 25.20 25.75 25.43 25.35 24.56 24.11 23.67 25.25 24.37 25.10 24.43 22.96 19.89 17.04 15.30 14.24 11.03 11.55 10.69 11.12 10.26 10.81 11.34 15.98 16.43 20.79 26.75 21.99 18.36 17.90 17.61 19.05 20.07 20.44 23.35 23.16
28.77 27.31 26.58 26.49 26.54 26.52 25.67 24.32 24.13 24.90 24.05 22.11 21.66 19.39 17.66 14.18 20.64 12.60 12.13 13.61 12.49 10.69 11.08 8.41 7.15 8.91 16.02 17.50 20.05 29.05 19.76 12.39 17.54 17.56 20.89 21.47 21.99 23.80
26.78 26.45 26.59 26.83 26.72 26.55 26.22 25.74 25.14 24.49 22.88 22.42 20.34 19.35 17.94 18.70 16.49 16.56 12.97 10.89 13.64 11.35 10.54 7.10 6.28 7.37 14.63 15.32 11.98 18.41 26.85 13.74 14.20 19.82 19.26 20.80 23.48 27.99
27.57 27.32 28.20 27.65 27.02 26.88 26.52 25.58 24.98 24.74 23.41 20.90 21.42 20.27 19.02 16.97 18.63 18.33 17.03 23.13 21.26 15.20 14.92 13.15 15.62 25.64 22.97 24.12 17.80 19.85 22.44 28.05 26.71 16.92 12.45 18.87 20.73 21.90
28.68 28.47 28.69 28.65 27.95 27.59 27.22 27.28 25.96 25.86 25.36 24.19 23.60 22.78 21.42 19.36 19.70 19.80 18.81 18.42 17.63 17.64 16.65 17.37 17.72 23.16 23.78 22.04 19.04 18.51 20.23 22.89 26.41 28.45 28.96 27.62 23.18 19.87
29.50 29.39 29.26 29.04 29.04 28.55 27.57 26.85 26.19 25.59 25.55 25.43 24.40 22.92 22.31 20.61 21.84 21.28 20.32 19.58 18.13 16.89 18.69 20.37 19.01 19.49 21.37 20.83 21.61 21.14 20.35 20.20 21.86 21.61 23.25 28.49 29.33 29.71